| State | Missouri | Latest | Unknown (1220 cfs) | |
| River | Marais des Cygnes River | Rating | Observed | Estimated |
| Updated | 2026-05-10 16:45 (38 minutes ago) | Flood - The river is flooding. Obstacles can be treacherous or deadly. The river should be avoided at this stage for casual trips and definitely for the inexperienced. Trips should be attempted only with protective gear and equipment.Flood | (none) | (none) |
| Discharge | 1220 cfs (median: 1320 cfs) | High - The river is high and potentially dangerous, especially for the young and / or inexperienced. Normal stream obstacles are sometimes difficult to navigate. Extended distances can be attempted, but canoe travel may not be advisable.High | (none) | (none) |
| Height | 6.48 feet | Good - Conditions are ideal for a canoe or kayak. Boats typically will drag on fewer than one-quarter of riffles, if at all, and portages are unnecessary or rare. Normal float lengths can be attempted without a problem.Good | (none) | (none) |
| Trend | Falling (falling over 24 hours) | Low - River is low but can still be floated. Some riffles are okay but most come with significant dragging and might need a portage. Float lengths should be reduced to accommodate low flow, dragging, and portages.Low | (none) | (none) |
| USGS | USGS Site ( Duck Duck Go Maps) | Poor - River is too low to float comfortably. Most or all riffles will drag or must be portaged and some obstacles (such as slick shelf rock) cause undue problems. Avoid the river at this stage for casual paddling trips.Poor | (none) | (none) |
A total of 2 rows are displayed.
| Miles | 2.5 |
| Trips | 1 |
| People | 2 |
| Dates | 2 |
| Years | 1 |
| Months | 1 |
| Rows | 2 |
| Sources | 1 |
BLG - Bluegill
CCF - Channel Catfish
CP - Chain Pickerel
FWD - Freshwater Drum
GSF - Green Sunfish
KSB - Kentucky Spotted Bass
LMB - Largemouth Bass
LSF - Longear Sunfish
RB - Rock Bass / Goggle Eye
RSF - Redear Sunfish
RT - Rainbow Trout
SMB - Smallmouth Bass
WB - White Bass
WF - Whitefish
WL - WalleyeThe classic River Trips application is still available for use. It is updated with the new system using a data retrofit. It is no longer maintained. The original River Trips application is no longer updated (as of 1 Dec 2016) but can be checked for errors or for the condition of the data before it was converted to the new system.
| Observation | Height | Discharge | Maximum Discharge | Minimum Discharge | Mean Discharge | P05 | P10 | P20 | P25 | P50 (Median) | P75 | P80 | P90 | P95 |
|---|---|---|---|---|---|---|---|---|---|---|---|---|---|---|
| 2026-05-10 16:45 | 6.48 | 1220 | 38600 (1961) | 2 (1981) | 4510 | 179 | 202 | 326 | 403 | 1320 | 5070 | 7320 | 14900 | 24300 |
| 2026-05-10 15:45 | 6.51 | 1240 | 38600 (1961) | 2 (1981) | 4510 | 179 | 202 | 326 | 403 | 1320 | 5070 | 7320 | 14900 | 24300 |
| 2026-05-10 14:45 | 6.54 | 1250 | 38600 (1961) | 2 (1981) | 4510 | 179 | 202 | 326 | 403 | 1320 | 5070 | 7320 | 14900 | 24300 |
| 2026-05-10 14:00 | 6.56 | 1270 | 38600 (1961) | 2 (1981) | 4510 | 179 | 202 | 326 | 403 | 1320 | 5070 | 7320 | 14900 | 24300 |
| 2026-05-10 13:45 | 6.59 | 1280 | 38600 (1961) | 2 (1981) | 4510 | 179 | 202 | 326 | 403 | 1320 | 5070 | 7320 | 14900 | 24300 |
| 2026-05-10 12:45 | 6.62 | 1300 | 38600 (1961) | 2 (1981) | 4510 | 179 | 202 | 326 | 403 | 1320 | 5070 | 7320 | 14900 | 24300 |
| 2026-05-10 11:45 | 6.65 | 1320 | 38600 (1961) | 2 (1981) | 4510 | 179 | 202 | 326 | 403 | 1320 | 5070 | 7320 | 14900 | 24300 |
| 2026-05-10 10:45 | 6.70 | 1350 | 38600 (1961) | 2 (1981) | 4510 | 179 | 202 | 326 | 403 | 1320 | 5070 | 7320 | 14900 | 24300 |
| 2026-05-10 09:45 | 6.74 | 1370 | 38600 (1961) | 2 (1981) | 4510 | 179 | 202 | 326 | 403 | 1320 | 5070 | 7320 | 14900 | 24300 |
| 2026-05-10 08:45 | 6.75 | 1380 | 38600 (1961) | 2 (1981) | 4510 | 179 | 202 | 326 | 403 | 1320 | 5070 | 7320 | 14900 | 24300 |
| 2026-05-10 07:45 | 6.83 | 1430 | 38600 (1961) | 2 (1981) | 4510 | 179 | 202 | 326 | 403 | 1320 | 5070 | 7320 | 14900 | 24300 |
| 2026-05-10 06:45 | 6.85 | 1440 | 38600 (1961) | 2 (1981) | 4510 | 179 | 202 | 326 | 403 | 1320 | 5070 | 7320 | 14900 | 24300 |
| 2026-05-10 05:45 | 6.93 | 1500 | 38600 (1961) | 2 (1981) | 4510 | 179 | 202 | 326 | 403 | 1320 | 5070 | 7320 | 14900 | 24300 |
| 2026-05-10 04:45 | 7.00 | 1540 | 38600 (1961) | 2 (1981) | 4510 | 179 | 202 | 326 | 403 | 1320 | 5070 | 7320 | 14900 | 24300 |
| 2026-05-10 03:45 | 7.05 | 1570 | 38600 (1961) | 2 (1981) | 4510 | 179 | 202 | 326 | 403 | 1320 | 5070 | 7320 | 14900 | 24300 |
| 2026-05-10 02:45 | 7.14 | 1630 | 38600 (1961) | 2 (1981) | 4510 | 179 | 202 | 326 | 403 | 1320 | 5070 | 7320 | 14900 | 24300 |
| 2026-05-10 01:45 | 7.21 | 1670 | 38600 (1961) | 2 (1981) | 4510 | 179 | 202 | 326 | 403 | 1320 | 5070 | 7320 | 14900 | 24300 |
| 2026-05-10 00:45 | 7.26 | 1700 | 38600 (1961) | 2 (1981) | 4510 | 179 | 202 | 326 | 403 | 1320 | 5070 | 7320 | 14900 | 24300 |
| 2026-05-09 23:45 | 7.37 | 1760 | 38600 (1961) | 2 (1981) | 4510 | 179 | 202 | 326 | 403 | 1320 | 5070 | 7320 | 14900 | 24300 |
| 2026-05-09 22:45 | 7.45 | 1800 | 48000 (1961) | 1 (1981) | 4860 | 194 | 205 | 309 | 439 | 1580 | 5550 | 7570 | 14500 | 21000 |
| 2026-05-09 21:45 | 7.56 | 1870 | 48000 (1961) | 1 (1981) | 4860 | 194 | 205 | 309 | 439 | 1580 | 5550 | 7570 | 14500 | 21000 |
| 2026-05-09 20:45 | 7.65 | 1920 | 48000 (1961) | 1 (1981) | 4860 | 194 | 205 | 309 | 439 | 1580 | 5550 | 7570 | 14500 | 21000 |
| 2026-05-09 19:45 | 7.78 | 2000 | 48000 (1961) | 1 (1981) | 4860 | 194 | 205 | 309 | 439 | 1580 | 5550 | 7570 | 14500 | 21000 |
| 2026-05-09 18:45 | 7.87 | 2050 | 48000 (1961) | 1 (1981) | 4860 | 194 | 205 | 309 | 439 | 1580 | 5550 | 7570 | 14500 | 21000 |
| 2026-05-09 17:45 | 7.99 | 2120 | 48000 (1961) | 1 (1981) | 4860 | 194 | 205 | 309 | 439 | 1580 | 5550 | 7570 | 14500 | 21000 |
| 2026-05-09 16:45 | 8.10 | 2190 | 48000 (1961) | 1 (1981) | 4860 | 194 | 205 | 309 | 439 | 1580 | 5550 | 7570 | 14500 | 21000 |
| 2026-05-09 15:45 | 8.24 | 2270 | 48000 (1961) | 1 (1981) | 4860 | 194 | 205 | 309 | 439 | 1580 | 5550 | 7570 | 14500 | 21000 |
| 2026-05-09 14:45 | 8.35 | 2340 | 48000 (1961) | 1 (1981) | 4860 | 194 | 205 | 309 | 439 | 1580 | 5550 | 7570 | 14500 | 21000 |
| 2026-05-09 14:00 | 8.43 | 2390 | 48000 (1961) | 1 (1981) | 4860 | 194 | 205 | 309 | 439 | 1580 | 5550 | 7570 | 14500 | 21000 |
| 2026-05-09 13:45 | 8.46 | 2410 | 48000 (1961) | 1 (1981) | 4860 | 194 | 205 | 309 | 439 | 1580 | 5550 | 7570 | 14500 | 21000 |
| 2026-05-09 12:45 | 8.58 | 2490 | 48000 (1961) | 1 (1981) | 4860 | 194 | 205 | 309 | 439 | 1580 | 5550 | 7570 | 14500 | 21000 |
| 2026-05-09 11:45 | 8.67 | 2550 | 48000 (1961) | 1 (1981) | 4860 | 194 | 205 | 309 | 439 | 1580 | 5550 | 7570 | 14500 | 21000 |
| 2026-05-09 10:45 | 8.76 | 2600 | 48000 (1961) | 1 (1981) | 4860 | 194 | 205 | 309 | 439 | 1580 | 5550 | 7570 | 14500 | 21000 |
| 2026-05-09 09:45 | 8.87 | 2680 | 48000 (1961) | 1 (1981) | 4860 | 194 | 205 | 309 | 439 | 1580 | 5550 | 7570 | 14500 | 21000 |
| 2026-05-09 08:45 | 8.93 | 2720 | 48000 (1961) | 1 (1981) | 4860 | 194 | 205 | 309 | 439 | 1580 | 5550 | 7570 | 14500 | 21000 |
| 2026-05-09 07:45 | 9.01 | 2770 | 48000 (1961) | 1 (1981) | 4860 | 194 | 205 | 309 | 439 | 1580 | 5550 | 7570 | 14500 | 21000 |
| 2026-05-09 06:45 | 9.10 | 2830 | 48000 (1961) | 1 (1981) | 4860 | 194 | 205 | 309 | 439 | 1580 | 5550 | 7570 | 14500 | 21000 |
| 2026-05-09 05:45 | 9.15 | 2860 | 48000 (1961) | 1 (1981) | 4860 | 194 | 205 | 309 | 439 | 1580 | 5550 | 7570 | 14500 | 21000 |
| 2026-05-09 04:45 | 9.19 | 2890 | 48000 (1961) | 1 (1981) | 4860 | 194 | 205 | 309 | 439 | 1580 | 5550 | 7570 | 14500 | 21000 |
| 2026-05-09 03:45 | 9.22 | 2910 | 48000 (1961) | 1 (1981) | 4860 | 194 | 205 | 309 | 439 | 1580 | 5550 | 7570 | 14500 | 21000 |
| 2026-05-09 02:45 | 9.29 | 2960 | 48000 (1961) | 1 (1981) | 4860 | 194 | 205 | 309 | 439 | 1580 | 5550 | 7570 | 14500 | 21000 |
| 2026-05-09 01:45 | 9.31 | 2970 | 48000 (1961) | 1 (1981) | 4860 | 194 | 205 | 309 | 439 | 1580 | 5550 | 7570 | 14500 | 21000 |
| 2026-05-09 00:45 | 9.35 | 3000 | 48000 (1961) | 1 (1981) | 4860 | 194 | 205 | 309 | 439 | 1580 | 5550 | 7570 | 14500 | 21000 |
| 2026-05-08 23:45 | 9.36 | 3000 | 48000 (1961) | 1 (1981) | 4860 | 194 | 205 | 309 | 439 | 1580 | 5550 | 7570 | 14500 | 21000 |
| 2026-05-08 22:45 | 9.39 | 3030 | 42500 (1961) | 1 (1981) | 4740 | 182 | 213 | 363 | 487 | 1520 | 4490 | 8700 | 14700 | 21900 |
| 2026-05-08 21:45 | 9.42 | 3050 | 42500 (1961) | 1 (1981) | 4740 | 182 | 213 | 363 | 487 | 1520 | 4490 | 8700 | 14700 | 21900 |
| 2026-05-08 20:45 | 9.47 | 3080 | 42500 (1961) | 1 (1981) | 4740 | 182 | 213 | 363 | 487 | 1520 | 4490 | 8700 | 14700 | 21900 |
| 2026-05-08 19:45 | 9.49 | 3090 | 42500 (1961) | 1 (1981) | 4740 | 182 | 213 | 363 | 487 | 1520 | 4490 | 8700 | 14700 | 21900 |
| 2026-05-08 18:45 | 9.52 | 3120 | 42500 (1961) | 1 (1981) | 4740 | 182 | 213 | 363 | 487 | 1520 | 4490 | 8700 | 14700 | 21900 |
| 2026-05-08 17:45 | 9.56 | 3140 | 42500 (1961) | 1 (1981) | 4740 | 182 | 213 | 363 | 487 | 1520 | 4490 | 8700 | 14700 | 21900 |
| 2026-05-08 16:45 | 9.60 | 3170 | 42500 (1961) | 1 (1981) | 4740 | 182 | 213 | 363 | 487 | 1520 | 4490 | 8700 | 14700 | 21900 |
| 2026-05-08 15:45 | 9.64 | 3200 | 42500 (1961) | 1 (1981) | 4740 | 182 | 213 | 363 | 487 | 1520 | 4490 | 8700 | 14700 | 21900 |
| 2026-05-08 14:45 | 9.68 | 3230 | 42500 (1961) | 1 (1981) | 4740 | 182 | 213 | 363 | 487 | 1520 | 4490 | 8700 | 14700 | 21900 |
| 2026-05-08 14:00 | 9.73 | 3260 | 42500 (1961) | 1 (1981) | 4740 | 182 | 213 | 363 | 487 | 1520 | 4490 | 8700 | 14700 | 21900 |
| 2026-05-08 13:45 | 9.77 | 3290 | 42500 (1961) | 1 (1981) | 4740 | 182 | 213 | 363 | 487 | 1520 | 4490 | 8700 | 14700 | 21900 |
| 2026-05-08 12:45 | 9.81 | 3320 | 42500 (1961) | 1 (1981) | 4740 | 182 | 213 | 363 | 487 | 1520 | 4490 | 8700 | 14700 | 21900 |
| 2026-05-08 11:45 | 9.87 | 3360 | 42500 (1961) | 1 (1981) | 4740 | 182 | 213 | 363 | 487 | 1520 | 4490 | 8700 | 14700 | 21900 |
| 2026-05-08 10:45 | 9.94 | 3410 | 42500 (1961) | 1 (1981) | 4740 | 182 | 213 | 363 | 487 | 1520 | 4490 | 8700 | 14700 | 21900 |
| 2026-05-08 09:45 | 9.98 | 3440 | 42500 (1961) | 1 (1981) | 4740 | 182 | 213 | 363 | 487 | 1520 | 4490 | 8700 | 14700 | 21900 |
| 2026-05-08 08:45 | 10.05 | 3490 | 42500 (1961) | 1 (1981) | 4740 | 182 | 213 | 363 | 487 | 1520 | 4490 | 8700 | 14700 | 21900 |
| 2026-05-08 07:45 | 10.09 | 3520 | 42500 (1961) | 1 (1981) | 4740 | 182 | 213 | 363 | 487 | 1520 | 4490 | 8700 | 14700 | 21900 |
| 2026-05-08 06:45 | 10.18 | 3590 | 42500 (1961) | 1 (1981) | 4740 | 182 | 213 | 363 | 487 | 1520 | 4490 | 8700 | 14700 | 21900 |
| 2026-05-08 05:45 | 10.23 | 3620 | 42500 (1961) | 1 (1981) | 4740 | 182 | 213 | 363 | 487 | 1520 | 4490 | 8700 | 14700 | 21900 |
| 2026-05-08 04:45 | 10.30 | 3670 | 42500 (1961) | 1 (1981) | 4740 | 182 | 213 | 363 | 487 | 1520 | 4490 | 8700 | 14700 | 21900 |
| 2026-05-08 03:45 | 10.37 | 3730 | 42500 (1961) | 1 (1981) | 4740 | 182 | 213 | 363 | 487 | 1520 | 4490 | 8700 | 14700 | 21900 |
| 2026-05-08 02:45 | 10.44 | 3780 | 42500 (1961) | 1 (1981) | 4740 | 182 | 213 | 363 | 487 | 1520 | 4490 | 8700 | 14700 | 21900 |
| 2026-05-08 01:45 | 10.49 | 3810 | 42500 (1961) | 1 (1981) | 4740 | 182 | 213 | 363 | 487 | 1520 | 4490 | 8700 | 14700 | 21900 |
| 2026-05-08 00:45 | 10.56 | 3870 | 42500 (1961) | 1 (1981) | 4740 | 182 | 213 | 363 | 487 | 1520 | 4490 | 8700 | 14700 | 21900 |
| 2026-05-07 23:45 | 10.58 | 3880 | 42500 (1961) | 1 (1981) | 4740 | 182 | 213 | 363 | 487 | 1520 | 4490 | 8700 | 14700 | 21900 |
| 2026-05-07 22:45 | 10.67 | 3950 | 31600 (1961) | 1 (1981) | 4170 | 188 | 226 | 402 | 548 | 1230 | 4840 | 7490 | 13400 | 21600 |
| 2026-05-07 21:45 | 10.70 | 3970 | 31600 (1961) | 1 (1981) | 4170 | 188 | 226 | 402 | 548 | 1230 | 4840 | 7490 | 13400 | 21600 |
| 2026-05-07 20:45 | 10.74 | 4000 | 31600 (1961) | 1 (1981) | 4170 | 188 | 226 | 402 | 548 | 1230 | 4840 | 7490 | 13400 | 21600 |
| 2026-05-07 19:45 | 10.80 | 4050 | 31600 (1961) | 1 (1981) | 4170 | 188 | 226 | 402 | 548 | 1230 | 4840 | 7490 | 13400 | 21600 |
| 2026-05-07 18:45 | 10.88 | 4110 | 31600 (1961) | 1 (1981) | 4170 | 188 | 226 | 402 | 548 | 1230 | 4840 | 7490 | 13400 | 21600 |
| 2026-05-07 17:45 | 10.92 | 4140 | 31600 (1961) | 1 (1981) | 4170 | 188 | 226 | 402 | 548 | 1230 | 4840 | 7490 | 13400 | 21600 |
| 2026-05-07 16:45 | 10.93 | 4150 | 31600 (1961) | 1 (1981) | 4170 | 188 | 226 | 402 | 548 | 1230 | 4840 | 7490 | 13400 | 21600 |
| 2026-05-07 15:45 | 10.96 | 4170 | 31600 (1961) | 1 (1981) | 4170 | 188 | 226 | 402 | 548 | 1230 | 4840 | 7490 | 13400 | 21600 |
| 2026-05-07 14:45 | 11.02 | 4220 | 31600 (1961) | 1 (1981) | 4170 | 188 | 226 | 402 | 548 | 1230 | 4840 | 7490 | 13400 | 21600 |
| 2026-05-07 13:45 | 11.04 | 4230 | 31600 (1961) | 1 (1981) | 4170 | 188 | 226 | 402 | 548 | 1230 | 4840 | 7490 | 13400 | 21600 |
| 2026-05-07 12:45 | 11.11 | 4290 | 31600 (1961) | 1 (1981) | 4170 | 188 | 226 | 402 | 548 | 1230 | 4840 | 7490 | 13400 | 21600 |
| 2026-05-07 11:45 | 11.13 | 4300 | 31600 (1961) | 1 (1981) | 4170 | 188 | 226 | 402 | 548 | 1230 | 4840 | 7490 | 13400 | 21600 |
| 2026-05-07 10:45 | 11.17 | 4330 | 31600 (1961) | 1 (1981) | 4170 | 188 | 226 | 402 | 548 | 1230 | 4840 | 7490 | 13400 | 21600 |
| 2026-05-07 09:45 | 11.20 | 4360 | 31600 (1961) | 1 (1981) | 4170 | 188 | 226 | 402 | 548 | 1230 | 4840 | 7490 | 13400 | 21600 |
| 2026-05-07 08:45 | 11.24 | 4390 | 31600 (1961) | 1 (1981) | 4170 | 188 | 226 | 402 | 548 | 1230 | 4840 | 7490 | 13400 | 21600 |
| 2026-05-07 07:45 | 11.27 | 4410 | 31600 (1961) | 1 (1981) | 4170 | 188 | 226 | 402 | 548 | 1230 | 4840 | 7490 | 13400 | 21600 |
| 2026-05-07 06:45 | 11.29 | 4430 | 31600 (1961) | 1 (1981) | 4170 | 188 | 226 | 402 | 548 | 1230 | 4840 | 7490 | 13400 | 21600 |
| 2026-05-07 05:45 | 11.30 | 4440 | 31600 (1961) | 1 (1981) | 4170 | 188 | 226 | 402 | 548 | 1230 | 4840 | 7490 | 13400 | 21600 |
| 2026-05-07 04:45 | 11.33 | 4460 | 31600 (1961) | 1 (1981) | 4170 | 188 | 226 | 402 | 548 | 1230 | 4840 | 7490 | 13400 | 21600 |
| 2026-05-07 03:45 | 11.38 | 4500 | 31600 (1961) | 1 (1981) | 4170 | 188 | 226 | 402 | 548 | 1230 | 4840 | 7490 | 13400 | 21600 |
| 2026-05-07 02:45 | 11.39 | 4510 | 31600 (1961) | 1 (1981) | 4170 | 188 | 226 | 402 | 548 | 1230 | 4840 | 7490 | 13400 | 21600 |
| 2026-05-07 01:45 | 11.41 | 4520 | 31600 (1961) | 1 (1981) | 4170 | 188 | 226 | 402 | 548 | 1230 | 4840 | 7490 | 13400 | 21600 |
| 2026-05-07 00:45 | 11.41 | 4520 | 31600 (1961) | 1 (1981) | 4170 | 188 | 226 | 402 | 548 | 1230 | 4840 | 7490 | 13400 | 21600 |
| 2026-05-06 23:45 | 11.44 | 4550 | 31600 (1961) | 1 (1981) | 4170 | 188 | 226 | 402 | 548 | 1230 | 4840 | 7490 | 13400 | 21600 |
| 2026-05-06 22:45 | 11.45 | 4550 | 27800 (2019) | 1 (1981) | 4030 | 193 | 220 | 408 | 510 | 1230 | 4980 | 5980 | 12500 | 21000 |
| 2026-05-06 21:45 | 11.44 | 4550 | 27800 (2019) | 1 (1981) | 4030 | 193 | 220 | 408 | 510 | 1230 | 4980 | 5980 | 12500 | 21000 |
| 2026-05-06 20:45 | 11.43 | 4540 | 27800 (2019) | 1 (1981) | 4030 | 193 | 220 | 408 | 510 | 1230 | 4980 | 5980 | 12500 | 21000 |
| 2026-05-06 19:45 | 11.43 | 4540 | 27800 (2019) | 1 (1981) | 4030 | 193 | 220 | 408 | 510 | 1230 | 4980 | 5980 | 12500 | 21000 |
| 2026-05-06 18:45 | 11.41 | 4520 | 27800 (2019) | 1 (1981) | 4030 | 193 | 220 | 408 | 510 | 1230 | 4980 | 5980 | 12500 | 21000 |
| 2026-05-06 17:45 | 11.37 | 4490 | 27800 (2019) | 1 (1981) | 4030 | 193 | 220 | 408 | 510 | 1230 | 4980 | 5980 | 12500 | 21000 |
| 2026-05-06 16:45 | 11.34 | 4470 | 27800 (2019) | 1 (1981) | 4030 | 193 | 220 | 408 | 510 | 1230 | 4980 | 5980 | 12500 | 21000 |
| 2026-05-06 15:45 | 11.30 | 4440 | 27800 (2019) | 1 (1981) | 4030 | 193 | 220 | 408 | 510 | 1230 | 4980 | 5980 | 12500 | 21000 |
| 2026-05-06 14:45 | 11.28 | 4420 | 27800 (2019) | 1 (1981) | 4030 | 193 | 220 | 408 | 510 | 1230 | 4980 | 5980 | 12500 | 21000 |
| 2026-05-06 13:45 | 11.24 | 4390 | 27800 (2019) | 1 (1981) | 4030 | 193 | 220 | 408 | 510 | 1230 | 4980 | 5980 | 12500 | 21000 |
| 2026-05-06 12:45 | 11.20 | 4360 | 27800 (2019) | 1 (1981) | 4030 | 193 | 220 | 408 | 510 | 1230 | 4980 | 5980 | 12500 | 21000 |
| 2026-05-06 11:45 | 11.17 | 4330 | 27800 (2019) | 1 (1981) | 4030 | 193 | 220 | 408 | 510 | 1230 | 4980 | 5980 | 12500 | 21000 |
| 2026-05-06 10:45 | 11.14 | 4310 | 27800 (2019) | 1 (1981) | 4030 | 193 | 220 | 408 | 510 | 1230 | 4980 | 5980 | 12500 | 21000 |
| 2026-05-06 09:45 | 11.14 | 4310 | 27800 (2019) | 1 (1981) | 4030 | 193 | 220 | 408 | 510 | 1230 | 4980 | 5980 | 12500 | 21000 |
| 2026-05-06 08:45 | 11.12 | 4290 | 27800 (2019) | 1 (1981) | 4030 | 193 | 220 | 408 | 510 | 1230 | 4980 | 5980 | 12500 | 21000 |
| 2026-05-06 07:45 | 11.14 | 4310 | 27800 (2019) | 1 (1981) | 4030 | 193 | 220 | 408 | 510 | 1230 | 4980 | 5980 | 12500 | 21000 |
| 2026-05-06 06:45 | 11.15 | 4320 | 27800 (2019) | 1 (1981) | 4030 | 193 | 220 | 408 | 510 | 1230 | 4980 | 5980 | 12500 | 21000 |
| 2026-05-06 05:45 | 11.19 | 4350 | 27800 (2019) | 1 (1981) | 4030 | 193 | 220 | 408 | 510 | 1230 | 4980 | 5980 | 12500 | 21000 |
| 2026-05-06 04:45 | 11.23 | 4380 | 27800 (2019) | 1 (1981) | 4030 | 193 | 220 | 408 | 510 | 1230 | 4980 | 5980 | 12500 | 21000 |
| 2026-05-06 03:45 | 11.29 | 4430 | 27800 (2019) | 1 (1981) | 4030 | 193 | 220 | 408 | 510 | 1230 | 4980 | 5980 | 12500 | 21000 |
| 2026-05-06 02:45 | 11.34 | 4470 | 27800 (2019) | 1 (1981) | 4030 | 193 | 220 | 408 | 510 | 1230 | 4980 | 5980 | 12500 | 21000 |
| 2026-05-06 01:45 | 11.38 | 4500 | 27800 (2019) | 1 (1981) | 4030 | 193 | 220 | 408 | 510 | 1230 | 4980 | 5980 | 12500 | 21000 |
| 2026-05-06 00:45 | 11.45 | 4550 | 27800 (2019) | 1 (1981) | 4030 | 193 | 220 | 408 | 510 | 1230 | 4980 | 5980 | 12500 | 21000 |
| 2026-05-05 23:45 | 11.48 | 4580 | 27800 (2019) | 1 (1981) | 4030 | 193 | 220 | 408 | 510 | 1230 | 4980 | 5980 | 12500 | 21000 |
| 2026-05-05 22:45 | 11.51 | 4600 | 29300 (2019) | 1 (1981) | 4110 | 189 | 230 | 396 | 504 | 1550 | 4720 | 6400 | 13300 | 20100 |
| 2026-05-05 21:45 | 11.57 | 4650 | 29300 (2019) | 1 (1981) | 4110 | 189 | 230 | 396 | 504 | 1550 | 4720 | 6400 | 13300 | 20100 |
| 2026-05-05 20:45 | 11.60 | 4670 | 29300 (2019) | 1 (1981) | 4110 | 189 | 230 | 396 | 504 | 1550 | 4720 | 6400 | 13300 | 20100 |
| 2026-05-05 19:45 | 11.62 | 4690 | 29300 (2019) | 1 (1981) | 4110 | 189 | 230 | 396 | 504 | 1550 | 4720 | 6400 | 13300 | 20100 |
| 2026-05-05 18:45 | 11.68 | 4740 | 29300 (2019) | 1 (1981) | 4110 | 189 | 230 | 396 | 504 | 1550 | 4720 | 6400 | 13300 | 20100 |
| 2026-05-05 17:45 | 11.69 | 4750 | 29300 (2019) | 1 (1981) | 4110 | 189 | 230 | 396 | 504 | 1550 | 4720 | 6400 | 13300 | 20100 |
| 2026-05-05 16:45 | 11.71 | 4760 | 29300 (2019) | 1 (1981) | 4110 | 189 | 230 | 396 | 504 | 1550 | 4720 | 6400 | 13300 | 20100 |
| 2026-05-05 15:45 | 11.69 | 4750 | 29300 (2019) | 1 (1981) | 4110 | 189 | 230 | 396 | 504 | 1550 | 4720 | 6400 | 13300 | 20100 |
| 2026-05-05 14:45 | 11.71 | 4760 | 29300 (2019) | 1 (1981) | 4110 | 189 | 230 | 396 | 504 | 1550 | 4720 | 6400 | 13300 | 20100 |
| 2026-05-05 13:45 | 11.71 | 4760 | 29300 (2019) | 1 (1981) | 4110 | 189 | 230 | 396 | 504 | 1550 | 4720 | 6400 | 13300 | 20100 |
| 2026-05-05 12:45 | 11.72 | 4770 | 29300 (2019) | 1 (1981) | 4110 | 189 | 230 | 396 | 504 | 1550 | 4720 | 6400 | 13300 | 20100 |
| 2026-05-05 11:45 | 11.73 | 4780 | 29300 (2019) | 1 (1981) | 4110 | 189 | 230 | 396 | 504 | 1550 | 4720 | 6400 | 13300 | 20100 |
| 2026-05-05 10:45 | 11.74 | 4790 | 29300 (2019) | 1 (1981) | 4110 | 189 | 230 | 396 | 504 | 1550 | 4720 | 6400 | 13300 | 20100 |
| 2026-05-05 09:45 | 11.74 | 4790 | 29300 (2019) | 1 (1981) | 4110 | 189 | 230 | 396 | 504 | 1550 | 4720 | 6400 | 13300 | 20100 |
| 2026-05-05 08:45 | 11.73 | 4780 | 29300 (2019) | 1 (1981) | 4110 | 189 | 230 | 396 | 504 | 1550 | 4720 | 6400 | 13300 | 20100 |
| 2026-05-05 07:45 | 11.76 | 4800 | 29300 (2019) | 1 (1981) | 4110 | 189 | 230 | 396 | 504 | 1550 | 4720 | 6400 | 13300 | 20100 |
| 2026-05-05 06:45 | 11.74 | 4790 | 29300 (2019) | 1 (1981) | 4110 | 189 | 230 | 396 | 504 | 1550 | 4720 | 6400 | 13300 | 20100 |
| 2026-05-05 05:45 | 11.75 | 4800 | 29300 (2019) | 1 (1981) | 4110 | 189 | 230 | 396 | 504 | 1550 | 4720 | 6400 | 13300 | 20100 |
| 2026-05-05 04:45 | 11.78 | 4820 | 29300 (2019) | 1 (1981) | 4110 | 189 | 230 | 396 | 504 | 1550 | 4720 | 6400 | 13300 | 20100 |
| 2026-05-05 03:45 | 11.77 | 4810 | 29300 (2019) | 1 (1981) | 4110 | 189 | 230 | 396 | 504 | 1550 | 4720 | 6400 | 13300 | 20100 |
| 2026-05-05 02:45 | 11.77 | 4810 | 29300 (2019) | 1 (1981) | 4110 | 189 | 230 | 396 | 504 | 1550 | 4720 | 6400 | 13300 | 20100 |
| 2026-05-05 01:45 | 11.79 | 4830 | 29300 (2019) | 1 (1981) | 4110 | 189 | 230 | 396 | 504 | 1550 | 4720 | 6400 | 13300 | 20100 |
| 2026-05-05 00:45 | 11.79 | 4830 | 29300 (2019) | 1 (1981) | 4110 | 189 | 230 | 396 | 504 | 1550 | 4720 | 6400 | 13300 | 20100 |
| 2026-05-04 23:45 | 11.81 | 4840 | 29300 (2019) | 1 (1981) | 4110 | 189 | 230 | 396 | 504 | 1550 | 4720 | 6400 | 13300 | 20100 |
| 2026-05-04 22:45 | 11.81 | 4840 | 29000 (1994) | 1 (1981) | 4190 | 145 | 218 | 361 | 441 | 1590 | 3880 | 5740 | 11700 | 26400 |
| 2026-05-04 21:45 | 11.82 | 4850 | 29000 (1994) | 1 (1981) | 4190 | 145 | 218 | 361 | 441 | 1590 | 3880 | 5740 | 11700 | 26400 |
| 2026-05-04 20:45 | 11.85 | 4880 | 29000 (1994) | 1 (1981) | 4190 | 145 | 218 | 361 | 441 | 1590 | 3880 | 5740 | 11700 | 26400 |
| 2026-05-04 19:45 | 11.87 | 4890 | 29000 (1994) | 1 (1981) | 4190 | 145 | 218 | 361 | 441 | 1590 | 3880 | 5740 | 11700 | 26400 |
| 2026-05-04 18:45 | 11.87 | 4890 | 29000 (1994) | 1 (1981) | 4190 | 145 | 218 | 361 | 441 | 1590 | 3880 | 5740 | 11700 | 26400 |
| 2026-05-04 17:45 | 11.88 | 4900 | 29000 (1994) | 1 (1981) | 4190 | 145 | 218 | 361 | 441 | 1590 | 3880 | 5740 | 11700 | 26400 |
| 2026-05-04 16:45 | 11.89 | 4910 | 29000 (1994) | 1 (1981) | 4190 | 145 | 218 | 361 | 441 | 1590 | 3880 | 5740 | 11700 | 26400 |
| 2026-05-04 15:45 | 11.90 | 4920 | 29000 (1994) | 1 (1981) | 4190 | 145 | 218 | 361 | 441 | 1590 | 3880 | 5740 | 11700 | 26400 |
| 2026-05-04 14:45 | 11.92 | 4930 | 29000 (1994) | 1 (1981) | 4190 | 145 | 218 | 361 | 441 | 1590 | 3880 | 5740 | 11700 | 26400 |
| 2026-05-04 13:45 | 11.92 | 4930 | 29000 (1994) | 1 (1981) | 4190 | 145 | 218 | 361 | 441 | 1590 | 3880 | 5740 | 11700 | 26400 |
| 2026-05-04 12:45 | 11.91 | 4930 | 29000 (1994) | 1 (1981) | 4190 | 145 | 218 | 361 | 441 | 1590 | 3880 | 5740 | 11700 | 26400 |
| 2026-05-04 11:45 | 11.95 | 4960 | 29000 (1994) | 1 (1981) | 4190 | 145 | 218 | 361 | 441 | 1590 | 3880 | 5740 | 11700 | 26400 |
| 2026-05-04 10:45 | 11.96 | 4970 | 29000 (1994) | 1 (1981) | 4190 | 145 | 218 | 361 | 441 | 1590 | 3880 | 5740 | 11700 | 26400 |
| 2026-05-04 09:45 | 11.96 | 4970 | 29000 (1994) | 1 (1981) | 4190 | 145 | 218 | 361 | 441 | 1590 | 3880 | 5740 | 11700 | 26400 |
| 2026-05-04 08:45 | 11.99 | 4990 | 29000 (1994) | 1 (1981) | 4190 | 145 | 218 | 361 | 441 | 1590 | 3880 | 5740 | 11700 | 26400 |
| 2026-05-04 07:45 | 12.00 | 5000 | 29000 (1994) | 1 (1981) | 4190 | 145 | 218 | 361 | 441 | 1590 | 3880 | 5740 | 11700 | 26400 |
| 2026-05-04 06:45 | 12.01 | 5010 | 29000 (1994) | 1 (1981) | 4190 | 145 | 218 | 361 | 441 | 1590 | 3880 | 5740 | 11700 | 26400 |
| 2026-05-04 05:45 | 12.02 | 5020 | 29000 (1994) | 1 (1981) | 4190 | 145 | 218 | 361 | 441 | 1590 | 3880 | 5740 | 11700 | 26400 |
| 2026-05-04 04:45 | 12.03 | 5020 | 29000 (1994) | 1 (1981) | 4190 | 145 | 218 | 361 | 441 | 1590 | 3880 | 5740 | 11700 | 26400 |
| 2026-05-04 03:45 | 12.05 | 5040 | 29000 (1994) | 1 (1981) | 4190 | 145 | 218 | 361 | 441 | 1590 | 3880 | 5740 | 11700 | 26400 |
| 2026-05-04 02:45 | 12.08 | 5070 | 29000 (1994) | 1 (1981) | 4190 | 145 | 218 | 361 | 441 | 1590 | 3880 | 5740 | 11700 | 26400 |
| 2026-05-04 01:45 | 12.08 | 5070 | 29000 (1994) | 1 (1981) | 4190 | 145 | 218 | 361 | 441 | 1590 | 3880 | 5740 | 11700 | 26400 |
| 2026-05-04 00:45 | 12.10 | 5080 | 29000 (1994) | 1 (1981) | 4190 | 145 | 218 | 361 | 441 | 1590 | 3880 | 5740 | 11700 | 26400 |
| 2026-05-03 23:45 | 12.08 | 5070 | 29000 (1994) | 1 (1981) | 4190 | 145 | 218 | 361 | 441 | 1590 | 3880 | 5740 | 11700 | 26400 |
| 2026-05-03 22:45 | 12.13 | 5110 | 35200 (2009) | 2 (1981) | 4670 | 148 | 230 | 362 | 457 | 1580 | 5260 | 6120 | 13900 | 28000 |
| 2026-05-03 21:45 | 12.12 | 5100 | 35200 (2009) | 2 (1981) | 4670 | 148 | 230 | 362 | 457 | 1580 | 5260 | 6120 | 13900 | 28000 |
| 2026-05-03 20:45 | 12.15 | 5120 | 35200 (2009) | 2 (1981) | 4670 | 148 | 230 | 362 | 457 | 1580 | 5260 | 6120 | 13900 | 28000 |
| 2026-05-03 19:45 | 12.16 | 5130 | 35200 (2009) | 2 (1981) | 4670 | 148 | 230 | 362 | 457 | 1580 | 5260 | 6120 | 13900 | 28000 |
| 2026-05-03 18:45 | 12.17 | 5140 | 35200 (2009) | 2 (1981) | 4670 | 148 | 230 | 362 | 457 | 1580 | 5260 | 6120 | 13900 | 28000 |
| 2026-05-03 17:45 | 12.18 | 5150 | 35200 (2009) | 2 (1981) | 4670 | 148 | 230 | 362 | 457 | 1580 | 5260 | 6120 | 13900 | 28000 |
| 2026-05-03 16:45 | 12.19 | 5160 | 35200 (2009) | 2 (1981) | 4670 | 148 | 230 | 362 | 457 | 1580 | 5260 | 6120 | 13900 | 28000 |
| 2026-05-03 15:45 | 12.19 | 5160 | 35200 (2009) | 2 (1981) | 4670 | 148 | 230 | 362 | 457 | 1580 | 5260 | 6120 | 13900 | 28000 |
| 2026-05-03 14:45 | 12.21 | 5170 | 35200 (2009) | 2 (1981) | 4670 | 148 | 230 | 362 | 457 | 1580 | 5260 | 6120 | 13900 | 28000 |
| 2026-05-03 13:45 | 12.21 | 5170 | 35200 (2009) | 2 (1981) | 4670 | 148 | 230 | 362 | 457 | 1580 | 5260 | 6120 | 13900 | 28000 |
| 2026-05-03 12:45 | 12.22 | 5180 | 35200 (2009) | 2 (1981) | 4670 | 148 | 230 | 362 | 457 | 1580 | 5260 | 6120 | 13900 | 28000 |
| 2026-05-03 11:45 | 12.23 | 5190 | 35200 (2009) | 2 (1981) | 4670 | 148 | 230 | 362 | 457 | 1580 | 5260 | 6120 | 13900 | 28000 |
| 2026-05-03 10:45 | 12.24 | 5200 | 35200 (2009) | 2 (1981) | 4670 | 148 | 230 | 362 | 457 | 1580 | 5260 | 6120 | 13900 | 28000 |
| 2026-05-03 09:45 | 12.26 | 5220 | 35200 (2009) | 2 (1981) | 4670 | 148 | 230 | 362 | 457 | 1580 | 5260 | 6120 | 13900 | 28000 |
| 2026-05-03 08:45 | 12.25 | 5210 | 35200 (2009) | 2 (1981) | 4670 | 148 | 230 | 362 | 457 | 1580 | 5260 | 6120 | 13900 | 28000 |
| 2026-05-03 07:45 | 12.26 | 5220 | 35200 (2009) | 2 (1981) | 4670 | 148 | 230 | 362 | 457 | 1580 | 5260 | 6120 | 13900 | 28000 |
| 2026-05-03 06:45 | 12.28 | 5230 | 35200 (2009) | 2 (1981) | 4670 | 148 | 230 | 362 | 457 | 1580 | 5260 | 6120 | 13900 | 28000 |
| 2026-05-03 05:45 | 12.25 | 5210 | 35200 (2009) | 2 (1981) | 4670 | 148 | 230 | 362 | 457 | 1580 | 5260 | 6120 | 13900 | 28000 |
| 2026-05-03 04:45 | 12.26 | 5220 | 35200 (2009) | 2 (1981) | 4670 | 148 | 230 | 362 | 457 | 1580 | 5260 | 6120 | 13900 | 28000 |
| 2026-05-03 03:45 | 12.24 | 5200 | 35200 (2009) | 2 (1981) | 4670 | 148 | 230 | 362 | 457 | 1580 | 5260 | 6120 | 13900 | 28000 |
| 2026-05-03 02:45 | 12.25 | 5210 | 35200 (2009) | 2 (1981) | 4670 | 148 | 230 | 362 | 457 | 1580 | 5260 | 6120 | 13900 | 28000 |
| 2026-05-03 01:45 | 12.24 | 5200 | 35200 (2009) | 2 (1981) | 4670 | 148 | 230 | 362 | 457 | 1580 | 5260 | 6120 | 13900 | 28000 |
| 2026-05-03 00:45 | 12.22 | 5180 | 35200 (2009) | 2 (1981) | 4670 | 148 | 230 | 362 | 457 | 1580 | 5260 | 6120 | 13900 | 28000 |
| 2026-05-02 23:45 | 12.18 | 5150 | 35200 (2009) | 2 (1981) | 4670 | 148 | 230 | 362 | 457 | 1580 | 5260 | 6120 | 13900 | 28000 |
| 2026-05-02 22:45 | 12.14 | 5120 | 39500 (2009) | 3 (1981) | 5030 | 147 | 238 | 436 | 510 | 1410 | 5450 | 6250 | 14700 | 28600 |
| 2026-05-02 21:45 | 12.13 | 5110 | 39500 (2009) | 3 (1981) | 5030 | 147 | 238 | 436 | 510 | 1410 | 5450 | 6250 | 14700 | 28600 |
| 2026-05-02 20:45 | 12.09 | 5070 | 39500 (2009) | 3 (1981) | 5030 | 147 | 238 | 436 | 510 | 1410 | 5450 | 6250 | 14700 | 28600 |
| 2026-05-02 19:45 | 12.05 | 5040 | 39500 (2009) | 3 (1981) | 5030 | 147 | 238 | 436 | 510 | 1410 | 5450 | 6250 | 14700 | 28600 |
| 2026-05-02 18:45 | 11.99 | 4990 | 39500 (2009) | 3 (1981) | 5030 | 147 | 238 | 436 | 510 | 1410 | 5450 | 6250 | 14700 | 28600 |
| 2026-05-02 17:45 | 11.94 | 4950 | 39500 (2009) | 3 (1981) | 5030 | 147 | 238 | 436 | 510 | 1410 | 5450 | 6250 | 14700 | 28600 |
| 2026-05-02 16:45 | 11.86 | 4890 | 39500 (2009) | 3 (1981) | 5030 | 147 | 238 | 436 | 510 | 1410 | 5450 | 6250 | 14700 | 28600 |
| 2026-05-02 15:45 | 11.80 | 4840 | 39500 (2009) | 3 (1981) | 5030 | 147 | 238 | 436 | 510 | 1410 | 5450 | 6250 | 14700 | 28600 |
| 2026-05-02 14:45 | 11.71 | 4760 | 39500 (2009) | 3 (1981) | 5030 | 147 | 238 | 436 | 510 | 1410 | 5450 | 6250 | 14700 | 28600 |
| 2026-05-02 13:45 | 11.66 | 4720 | 39500 (2009) | 3 (1981) | 5030 | 147 | 238 | 436 | 510 | 1410 | 5450 | 6250 | 14700 | 28600 |
| 2026-05-02 12:45 | 11.58 | 4660 | 39500 (2009) | 3 (1981) | 5030 | 147 | 238 | 436 | 510 | 1410 | 5450 | 6250 | 14700 | 28600 |
| 2026-05-02 11:45 | 11.48 | 4580 | 39500 (2009) | 3 (1981) | 5030 | 147 | 238 | 436 | 510 | 1410 | 5450 | 6250 | 14700 | 28600 |
| 2026-05-02 10:45 | 11.41 | 4520 | 39500 (2009) | 3 (1981) | 5030 | 147 | 238 | 436 | 510 | 1410 | 5450 | 6250 | 14700 | 28600 |
| 2026-05-02 09:45 | 11.37 | 4490 | 39500 (2009) | 3 (1981) | 5030 | 147 | 238 | 436 | 510 | 1410 | 5450 | 6250 | 14700 | 28600 |
| 2026-05-02 08:45 | 11.30 | 4440 | 39500 (2009) | 3 (1981) | 5030 | 147 | 238 | 436 | 510 | 1410 | 5450 | 6250 | 14700 | 28600 |
| 2026-05-02 07:45 | 11.28 | 4420 | 39500 (2009) | 3 (1981) | 5030 | 147 | 238 | 436 | 510 | 1410 | 5450 | 6250 | 14700 | 28600 |
| 2026-05-02 06:45 | 11.26 | 4400 | 39500 (2009) | 3 (1981) | 5030 | 147 | 238 | 436 | 510 | 1410 | 5450 | 6250 | 14700 | 28600 |
| 2026-05-02 05:45 | 11.21 | 4370 | 39500 (2009) | 3 (1981) | 5030 | 147 | 238 | 436 | 510 | 1410 | 5450 | 6250 | 14700 | 28600 |
| 2026-05-02 04:45 | 11.20 | 4360 | 39500 (2009) | 3 (1981) | 5030 | 147 | 238 | 436 | 510 | 1410 | 5450 | 6250 | 14700 | 28600 |
| 2026-05-02 03:45 | 11.17 | 4330 | 39500 (2009) | 3 (1981) | 5030 | 147 | 238 | 436 | 510 | 1410 | 5450 | 6250 | 14700 | 28600 |
| 2026-05-02 02:45 | 11.16 | 4330 | 39500 (2009) | 3 (1981) | 5030 | 147 | 238 | 436 | 510 | 1410 | 5450 | 6250 | 14700 | 28600 |
| 2026-05-02 01:45 | 11.13 | 4300 | 39500 (2009) | 3 (1981) | 5030 | 147 | 238 | 436 | 510 | 1410 | 5450 | 6250 | 14700 | 28600 |
| 2026-05-02 00:45 | 11.11 | 4290 | 39500 (2009) | 3 (1981) | 5030 | 147 | 238 | 436 | 510 | 1410 | 5450 | 6250 | 14700 | 28600 |
| 2026-05-01 23:45 | 11.09 | 4270 | 39500 (2009) | 3 (1981) | 5030 | 147 | 238 | 436 | 510 | 1410 | 5450 | 6250 | 14700 | 28600 |
| 2026-05-01 22:45 | 11.06 | 4250 | 37400 (2009) | 4 (1981) | 5330 | 129 | 244 | 463 | 585 | 1500 | 5100 | 8220 | 17300 | 27100 |
| 2026-05-01 21:45 | 11.04 | 4230 | 37400 (2009) | 4 (1981) | 5330 | 129 | 244 | 463 | 585 | 1500 | 5100 | 8220 | 17300 | 27100 |
| 2026-05-01 20:45 | 11.01 | 4210 | 37400 (2009) | 4 (1981) | 5330 | 129 | 244 | 463 | 585 | 1500 | 5100 | 8220 | 17300 | 27100 |
| 2026-05-01 19:45 | 10.99 | 4190 | 37400 (2009) | 4 (1981) | 5330 | 129 | 244 | 463 | 585 | 1500 | 5100 | 8220 | 17300 | 27100 |
| 2026-05-01 18:45 | 10.94 | 4160 | 37400 (2009) | 4 (1981) | 5330 | 129 | 244 | 463 | 585 | 1500 | 5100 | 8220 | 17300 | 27100 |
| 2026-05-01 17:45 | 10.91 | 4130 | 37400 (2009) | 4 (1981) | 5330 | 129 | 244 | 463 | 585 | 1500 | 5100 | 8220 | 17300 | 27100 |
| 2026-05-01 16:45 | 10.88 | 4110 | 37400 (2009) | 4 (1981) | 5330 | 129 | 244 | 463 | 585 | 1500 | 5100 | 8220 | 17300 | 27100 |
| 2026-05-01 15:45 | 10.83 | 4070 | 37400 (2009) | 4 (1981) | 5330 | 129 | 244 | 463 | 585 | 1500 | 5100 | 8220 | 17300 | 27100 |
| 2026-05-01 14:45 | 10.79 | 4040 | 37400 (2009) | 4 (1981) | 5330 | 129 | 244 | 463 | 585 | 1500 | 5100 | 8220 | 17300 | 27100 |
| 2026-05-01 13:45 | 10.79 | 4040 | 37400 (2009) | 4 (1981) | 5330 | 129 | 244 | 463 | 585 | 1500 | 5100 | 8220 | 17300 | 27100 |
| 2026-05-01 12:45 | 10.78 | 4030 | 37400 (2009) | 4 (1981) | 5330 | 129 | 244 | 463 | 585 | 1500 | 5100 | 8220 | 17300 | 27100 |
| 2026-05-01 11:45 | 10.75 | 4010 | 37400 (2009) | 4 (1981) | 5330 | 129 | 244 | 463 | 585 | 1500 | 5100 | 8220 | 17300 | 27100 |
| 2026-05-01 10:45 | 10.76 | 4020 | 37400 (2009) | 4 (1981) | 5330 | 129 | 244 | 463 | 585 | 1500 | 5100 | 8220 | 17300 | 27100 |
| 2026-05-01 09:45 | 10.78 | 4030 | 37400 (2009) | 4 (1981) | 5330 | 129 | 244 | 463 | 585 | 1500 | 5100 | 8220 | 17300 | 27100 |
| 2026-05-01 08:45 | 10.85 | 4090 | 37400 (2009) | 4 (1981) | 5330 | 129 | 244 | 463 | 585 | 1500 | 5100 | 8220 | 17300 | 27100 |
| 2026-05-01 07:45 | 10.94 | 4160 | 37400 (2009) | 4 (1981) | 5330 | 129 | 244 | 463 | 585 | 1500 | 5100 | 8220 | 17300 | 27100 |
| 2026-05-01 06:45 | 11.09 | 4270 | 37400 (2009) | 4 (1981) | 5330 | 129 | 244 | 463 | 585 | 1500 | 5100 | 8220 | 17300 | 27100 |
| 2026-05-01 05:45 | 11.25 | 4400 | 37400 (2009) | 4 (1981) | 5330 | 129 | 244 | 463 | 585 | 1500 | 5100 | 8220 | 17300 | 27100 |
| 2026-05-01 04:45 | 11.50 | 4590 | 37400 (2009) | 4 (1981) | 5330 | 129 | 244 | 463 | 585 | 1500 | 5100 | 8220 | 17300 | 27100 |
| 2026-05-01 03:45 | 11.77 | 4810 | 37400 (2009) | 4 (1981) | 5330 | 129 | 244 | 463 | 585 | 1500 | 5100 | 8220 | 17300 | 27100 |
| 2026-05-01 02:45 | 12.11 | 5090 | 37400 (2009) | 4 (1981) | 5330 | 129 | 244 | 463 | 585 | 1500 | 5100 | 8220 | 17300 | 27100 |
| 2026-05-01 01:45 | 12.49 | 5410 | 37400 (2009) | 4 (1981) | 5330 | 129 | 244 | 463 | 585 | 1500 | 5100 | 8220 | 17300 | 27100 |
| 2026-05-01 00:45 | 12.90 | 5760 | 37400 (2009) | 4 (1981) | 5330 | 129 | 244 | 463 | 585 | 1500 | 5100 | 8220 | 17300 | 27100 |
| 2026-04-30 23:45 | 13.35 | 6160 | 37400 (2009) | 4 (1981) | 5330 | 129 | 244 | 463 | 585 | 1500 | 5100 | 8220 | 17300 | 27100 |
| 2026-04-30 22:45 | 13.84 | 6600 | 35100 (2024) | 11 (1981) | 4870 | 130 | 261 | 412 | 616 | 1550 | 4650 | 7240 | 18200 | 25900 |
| 2026-04-30 21:45 | 14.34 | 7060 | 35100 (2024) | 11 (1981) | 4870 | 130 | 261 | 412 | 616 | 1550 | 4650 | 7240 | 18200 | 25900 |
| 2026-04-30 20:45 | 14.85 | 7540 | 35100 (2024) | 11 (1981) | 4870 | 130 | 261 | 412 | 616 | 1550 | 4650 | 7240 | 18200 | 25900 |
| 2026-04-30 19:45 | 15.40 | 8070 | 35100 (2024) | 11 (1981) | 4870 | 130 | 261 | 412 | 616 | 1550 | 4650 | 7240 | 18200 | 25900 |
| 2026-04-30 18:45 | 15.93 | 8590 | 35100 (2024) | 11 (1981) | 4870 | 130 | 261 | 412 | 616 | 1550 | 4650 | 7240 | 18200 | 25900 |
| 2026-04-30 17:45 | 16.51 | 9180 | 35100 (2024) | 11 (1981) | 4870 | 130 | 261 | 412 | 616 | 1550 | 4650 | 7240 | 18200 | 25900 |
| 2026-04-30 16:45 | 17.07 | 9760 | 35100 (2024) | 11 (1981) | 4870 | 130 | 261 | 412 | 616 | 1550 | 4650 | 7240 | 18200 | 25900 |
| 2026-04-30 15:45 | 17.65 | 10400 | 35100 (2024) | 11 (1981) | 4870 | 130 | 261 | 412 | 616 | 1550 | 4650 | 7240 | 18200 | 25900 |
| 2026-04-30 14:45 | 18.23 | 11000 | 35100 (2024) | 11 (1981) | 4870 | 130 | 261 | 412 | 616 | 1550 | 4650 | 7240 | 18200 | 25900 |
| 2026-04-30 13:45 | 18.78 | 11600 | 35100 (2024) | 11 (1981) | 4870 | 130 | 261 | 412 | 616 | 1550 | 4650 | 7240 | 18200 | 25900 |
| 2026-04-30 12:45 | 19.31 | 12200 | 35100 (2024) | 11 (1981) | 4870 | 130 | 261 | 412 | 616 | 1550 | 4650 | 7240 | 18200 | 25900 |
| 2026-04-30 11:45 | 19.85 | 12800 | 35100 (2024) | 11 (1981) | 4870 | 130 | 261 | 412 | 616 | 1550 | 4650 | 7240 | 18200 | 25900 |
| 2026-04-30 10:45 | 20.35 | 13400 | 35100 (2024) | 11 (1981) | 4870 | 130 | 261 | 412 | 616 | 1550 | 4650 | 7240 | 18200 | 25900 |
| 2026-04-30 09:45 | 20.83 | 14000 | 35100 (2024) | 11 (1981) | 4870 | 130 | 261 | 412 | 616 | 1550 | 4650 | 7240 | 18200 | 25900 |
| 2026-04-30 08:45 | 21.29 | 14500 | 35100 (2024) | 11 (1981) | 4870 | 130 | 261 | 412 | 616 | 1550 | 4650 | 7240 | 18200 | 25900 |
| 2026-04-30 07:45 | 21.70 | 15000 | 35100 (2024) | 11 (1981) | 4870 | 130 | 261 | 412 | 616 | 1550 | 4650 | 7240 | 18200 | 25900 |
| 2026-04-30 06:45 | 22.07 | 15500 | 35100 (2024) | 11 (1981) | 4870 | 130 | 261 | 412 | 616 | 1550 | 4650 | 7240 | 18200 | 25900 |
| 2026-04-30 05:45 | 22.40 | 15900 | 35100 (2024) | 11 (1981) | 4870 | 130 | 261 | 412 | 616 | 1550 | 4650 | 7240 | 18200 | 25900 |
| 2026-04-30 04:45 | 22.70 | 16300 | 35100 (2024) | 11 (1981) | 4870 | 130 | 261 | 412 | 616 | 1550 | 4650 | 7240 | 18200 | 25900 |
| 2026-04-30 03:45 | 22.98 | 16600 | 35100 (2024) | 11 (1981) | 4870 | 130 | 261 | 412 | 616 | 1550 | 4650 | 7240 | 18200 | 25900 |
| 2026-04-30 02:45 | 23.19 | 16900 | 35100 (2024) | 11 (1981) | 4870 | 130 | 261 | 412 | 616 | 1550 | 4650 | 7240 | 18200 | 25900 |
| 2026-04-30 01:45 | 23.40 | 17200 | 35100 (2024) | 11 (1981) | 4870 | 130 | 261 | 412 | 616 | 1550 | 4650 | 7240 | 18200 | 25900 |
| 2026-04-30 00:45 | 23.57 | 17400 | 35100 (2024) | 11 (1981) | 4870 | 130 | 261 | 412 | 616 | 1550 | 4650 | 7240 | 18200 | 25900 |
| 2026-04-29 23:45 | 23.70 | 17500 | 35100 (2024) | 11 (1981) | 4870 | 130 | 261 | 412 | 616 | 1550 | 4650 | 7240 | 18200 | 25900 |
| 2026-04-29 22:45 | 23.81 | 17700 | 38700 (2024) | 13 (1981) | 4200 | 142 | 253 | 455 | 589 | 1550 | 4340 | 5360 | 12400 | 24000 |
| 2026-04-29 21:45 | 23.92 | 17800 | 38700 (2024) | 13 (1981) | 4200 | 142 | 253 | 455 | 589 | 1550 | 4340 | 5360 | 12400 | 24000 |
| 2026-04-29 20:45 | 24.00 | 17900 | 38700 (2024) | 13 (1981) | 4200 | 142 | 253 | 455 | 589 | 1550 | 4340 | 5360 | 12400 | 24000 |
| 2026-04-29 19:45 | 24.07 | 18000 | 38700 (2024) | 13 (1981) | 4200 | 142 | 253 | 455 | 589 | 1550 | 4340 | 5360 | 12400 | 24000 |
| 2026-04-29 18:45 | 24.13 | 18100 | 38700 (2024) | 13 (1981) | 4200 | 142 | 253 | 455 | 589 | 1550 | 4340 | 5360 | 12400 | 24000 |
| 2026-04-29 17:45 | 24.15 | 18100 | 38700 (2024) | 13 (1981) | 4200 | 142 | 253 | 455 | 589 | 1550 | 4340 | 5360 | 12400 | 24000 |
| 2026-04-29 16:45 | 24.20 | 18200 | 38700 (2024) | 13 (1981) | 4200 | 142 | 253 | 455 | 589 | 1550 | 4340 | 5360 | 12400 | 24000 |
| 2026-04-29 15:45 | 24.22 | 18200 | 38700 (2024) | 13 (1981) | 4200 | 142 | 253 | 455 | 589 | 1550 | 4340 | 5360 | 12400 | 24000 |
| 2026-04-29 14:45 | 24.26 | 18300 | 38700 (2024) | 13 (1981) | 4200 | 142 | 253 | 455 | 589 | 1550 | 4340 | 5360 | 12400 | 24000 |
| 2026-04-29 13:45 | 24.27 | 18300 | 38700 (2024) | 13 (1981) | 4200 | 142 | 253 | 455 | 589 | 1550 | 4340 | 5360 | 12400 | 24000 |
| 2026-04-29 12:45 | 24.31 | 18300 | 38700 (2024) | 13 (1981) | 4200 | 142 | 253 | 455 | 589 | 1550 | 4340 | 5360 | 12400 | 24000 |
| 2026-04-29 11:45 | 24.30 | 18300 | 38700 (2024) | 13 (1981) | 4200 | 142 | 253 | 455 | 589 | 1550 | 4340 | 5360 | 12400 | 24000 |
| 2026-04-29 10:45 | 24.33 | 18400 | 38700 (2024) | 13 (1981) | 4200 | 142 | 253 | 455 | 589 | 1550 | 4340 | 5360 | 12400 | 24000 |
| 2026-04-29 09:45 | 24.35 | 18400 | 38700 (2024) | 13 (1981) | 4200 | 142 | 253 | 455 | 589 | 1550 | 4340 | 5360 | 12400 | 24000 |
| 2026-04-29 08:45 | 24.34 | 18400 | 38700 (2024) | 13 (1981) | 4200 | 142 | 253 | 455 | 589 | 1550 | 4340 | 5360 | 12400 | 24000 |
| 2026-04-29 07:45 | 24.33 | 18400 | 38700 (2024) | 13 (1981) | 4200 | 142 | 253 | 455 | 589 | 1550 | 4340 | 5360 | 12400 | 24000 |
| 2026-04-29 06:45 | 24.36 | 18400 | 38700 (2024) | 13 (1981) | 4200 | 142 | 253 | 455 | 589 | 1550 | 4340 | 5360 | 12400 | 24000 |
| 2026-04-29 05:45 | 24.35 | 18400 | 38700 (2024) | 13 (1981) | 4200 | 142 | 253 | 455 | 589 | 1550 | 4340 | 5360 | 12400 | 24000 |
| 2026-04-29 05:30 | 24.37 | 18400 | 38700 (2024) | 13 (1981) | 4200 | 142 | 253 | 455 | 589 | 1550 | 4340 | 5360 | 12400 | 24000 |
| 2026-04-29 04:45 | 24.36 | 18400 | 38700 (2024) | 13 (1981) | 4200 | 142 | 253 | 455 | 589 | 1550 | 4340 | 5360 | 12400 | 24000 |
| 2026-04-29 03:45 | 24.36 | 18400 | 38700 (2024) | 13 (1981) | 4200 | 142 | 253 | 455 | 589 | 1550 | 4340 | 5360 | 12400 | 24000 |
| 2026-04-29 02:45 | 24.36 | 18400 | 38700 (2024) | 13 (1981) | 4200 | 142 | 253 | 455 | 589 | 1550 | 4340 | 5360 | 12400 | 24000 |
| 2026-04-29 01:45 | 24.35 | 18400 | 38700 (2024) | 13 (1981) | 4200 | 142 | 253 | 455 | 589 | 1550 | 4340 | 5360 | 12400 | 24000 |
| 2026-04-29 00:45 | 24.34 | 18400 | 38700 (2024) | 13 (1981) | 4200 | 142 | 253 | 455 | 589 | 1550 | 4340 | 5360 | 12400 | 24000 |
| 2026-04-28 23:45 | 24.34 | 18400 | 38700 (2024) | 13 (1981) | 4200 | 142 | 253 | 455 | 589 | 1550 | 4340 | 5360 | 12400 | 24000 |
| 2026-04-28 22:45 | 24.34 | 18400 | 28000 (2024) | 6 (1981) | 3620 | 125 | 222 | 435 | 479 | 1530 | 3600 | 4920 | 11400 | 17500 |
| 2026-04-28 21:45 | 24.31 | 18300 | 28000 (2024) | 6 (1981) | 3620 | 125 | 222 | 435 | 479 | 1530 | 3600 | 4920 | 11400 | 17500 |
| 2026-04-28 21:30 | 24.31 | 18300 | 28000 (2024) | 6 (1981) | 3620 | 125 | 222 | 435 | 479 | 1530 | 3600 | 4920 | 11400 | 17500 |
| 2026-04-28 20:45 | 24.29 | 18300 | 28000 (2024) | 6 (1981) | 3620 | 125 | 222 | 435 | 479 | 1530 | 3600 | 4920 | 11400 | 17500 |
| 2026-04-28 19:45 | 24.28 | 18300 | 28000 (2024) | 6 (1981) | 3620 | 125 | 222 | 435 | 479 | 1530 | 3600 | 4920 | 11400 | 17500 |
| 2026-04-28 18:45 | 24.25 | 18300 | 28000 (2024) | 6 (1981) | 3620 | 125 | 222 | 435 | 479 | 1530 | 3600 | 4920 | 11400 | 17500 |
| 2026-04-28 17:45 | 24.22 | 18200 | 28000 (2024) | 6 (1981) | 3620 | 125 | 222 | 435 | 479 | 1530 | 3600 | 4920 | 11400 | 17500 |
| 2026-04-28 16:45 | 24.17 | 18200 | 28000 (2024) | 6 (1981) | 3620 | 125 | 222 | 435 | 479 | 1530 | 3600 | 4920 | 11400 | 17500 |
| 2026-04-28 15:45 | 24.12 | 18100 | 28000 (2024) | 6 (1981) | 3620 | 125 | 222 | 435 | 479 | 1530 | 3600 | 4920 | 11400 | 17500 |
| 2026-04-28 14:45 | 24.06 | 18000 | 28000 (2024) | 6 (1981) | 3620 | 125 | 222 | 435 | 479 | 1530 | 3600 | 4920 | 11400 | 17500 |
| 2026-04-28 13:45 | 24.00 | 17900 | 28000 (2024) | 6 (1981) | 3620 | 125 | 222 | 435 | 479 | 1530 | 3600 | 4920 | 11400 | 17500 |
| 2026-04-28 13:30 | 24.00 | 17900 | 28000 (2024) | 6 (1981) | 3620 | 125 | 222 | 435 | 479 | 1530 | 3600 | 4920 | 11400 | 17500 |
| 2026-04-28 12:45 | 23.93 | 17800 | 28000 (2024) | 6 (1981) | 3620 | 125 | 222 | 435 | 479 | 1530 | 3600 | 4920 | 11400 | 17500 |
| 2026-04-28 11:45 | 23.84 | 17700 | 28000 (2024) | 6 (1981) | 3620 | 125 | 222 | 435 | 479 | 1530 | 3600 | 4920 | 11400 | 17500 |
| 2026-04-28 10:45 | 23.76 | 17600 | 28000 (2024) | 6 (1981) | 3620 | 125 | 222 | 435 | 479 | 1530 | 3600 | 4920 | 11400 | 17500 |
| 2026-04-28 09:45 | 23.64 | 17500 | 28000 (2024) | 6 (1981) | 3620 | 125 | 222 | 435 | 479 | 1530 | 3600 | 4920 | 11400 | 17500 |
| 2026-04-28 08:45 | 23.54 | 17300 | 28000 (2024) | 6 (1981) | 3620 | 125 | 222 | 435 | 479 | 1530 | 3600 | 4920 | 11400 | 17500 |
| 2026-04-28 07:45 | 23.41 | 17200 | 28000 (2024) | 6 (1981) | 3620 | 125 | 222 | 435 | 479 | 1530 | 3600 | 4920 | 11400 | 17500 |
| 2026-04-28 06:45 | 23.27 | 17000 | 28000 (2024) | 6 (1981) | 3620 | 125 | 222 | 435 | 479 | 1530 | 3600 | 4920 | 11400 | 17500 |
| 2026-04-28 05:45 | 23.10 | 16800 | 28000 (2024) | 6 (1981) | 3620 | 125 | 222 | 435 | 479 | 1530 | 3600 | 4920 | 11400 | 17500 |
| 2026-04-28 05:30 | 23.07 | 16700 | 28000 (2024) | 6 (1981) | 3620 | 125 | 222 | 435 | 479 | 1530 | 3600 | 4920 | 11400 | 17500 |
| 2026-04-28 04:45 | 22.95 | 16600 | 28000 (2024) | 6 (1981) | 3620 | 125 | 222 | 435 | 479 | 1530 | 3600 | 4920 | 11400 | 17500 |
| 2026-04-28 03:45 | 22.73 | 16300 | 28000 (2024) | 6 (1981) | 3620 | 125 | 222 | 435 | 479 | 1530 | 3600 | 4920 | 11400 | 17500 |
| 2026-04-28 02:45 | 22.53 | 16100 | 28000 (2024) | 6 (1981) | 3620 | 125 | 222 | 435 | 479 | 1530 | 3600 | 4920 | 11400 | 17500 |
| 2026-04-28 01:45 | 22.30 | 15800 | 28000 (2024) | 6 (1981) | 3620 | 125 | 222 | 435 | 479 | 1530 | 3600 | 4920 | 11400 | 17500 |
| 2026-04-28 00:45 | 22.05 | 15500 | 28000 (2024) | 6 (1981) | 3620 | 125 | 222 | 435 | 479 | 1530 | 3600 | 4920 | 11400 | 17500 |
| 2026-04-27 23:45 | 21.77 | 15100 | 28000 (2024) | 6 (1981) | 3620 | 125 | 222 | 435 | 479 | 1530 | 3600 | 4920 | 11400 | 17500 |
| 2026-04-27 22:45 | 21.45 | 14700 | 21100 (2010) | 6 (1981) | 2840 | 121 | 240 | 402 | 518 | 1370 | 3220 | 3960 | 7670 | 13000 |
| 2026-04-27 21:45 | 21.12 | 14300 | 21100 (2010) | 6 (1981) | 2840 | 121 | 240 | 402 | 518 | 1370 | 3220 | 3960 | 7670 | 13000 |
| 2026-04-27 21:30 | 21.02 | 14200 | 21100 (2010) | 6 (1981) | 2840 | 121 | 240 | 402 | 518 | 1370 | 3220 | 3960 | 7670 | 13000 |
| 2026-04-27 20:45 | 20.77 | 13900 | 21100 (2010) | 6 (1981) | 2840 | 121 | 240 | 402 | 518 | 1370 | 3220 | 3960 | 7670 | 13000 |
| 2026-04-27 19:45 | 20.42 | 13500 | 21100 (2010) | 6 (1981) | 2840 | 121 | 240 | 402 | 518 | 1370 | 3220 | 3960 | 7670 | 13000 |
| 2026-04-27 18:45 | 2 | 13000 | 21100 (2010) | 6 (1981) | 2840 | 121 | 240 | 402 | 518 | 1370 | 3220 | 3960 | 7670 | 13000 |
| 2026-04-27 17:45 | 19.61 | 12600 | 21100 (2010) | 6 (1981) | 2840 | 121 | 240 | 402 | 518 | 1370 | 3220 | 3960 | 7670 | 13000 |
| 2026-04-27 16:45 | 19.13 | 12000 | 21100 (2010) | 6 (1981) | 2840 | 121 | 240 | 402 | 518 | 1370 | 3220 | 3960 | 7670 | 13000 |
| 2026-04-27 15:45 | 18.67 | 11500 | 21100 (2010) | 6 (1981) | 2840 | 121 | 240 | 402 | 518 | 1370 | 3220 | 3960 | 7670 | 13000 |
| 2026-04-27 14:45 | 18.09 | 10900 | 21100 (2010) | 6 (1981) | 2840 | 121 | 240 | 402 | 518 | 1370 | 3220 | 3960 | 7670 | 13000 |
| 2026-04-27 13:45 | 17.49 | 10200 | 21100 (2010) | 6 (1981) | 2840 | 121 | 240 | 402 | 518 | 1370 | 3220 | 3960 | 7670 | 13000 |
| 2026-04-27 12:45 | 16.85 | 9530 | 21100 (2010) | 6 (1981) | 2840 | 121 | 240 | 402 | 518 | 1370 | 3220 | 3960 | 7670 | 13000 |
| 2026-04-27 11:45 | 16.12 | 8780 | 21100 (2010) | 6 (1981) | 2840 | 121 | 240 | 402 | 518 | 1370 | 3220 | 3960 | 7670 | 13000 |
| 2026-04-27 10:45 | 15.30 | 7970 | 21100 (2010) | 6 (1981) | 2840 | 121 | 240 | 402 | 518 | 1370 | 3220 | 3960 | 7670 | 13000 |
| 2026-04-27 09:45 | 14.43 | 7140 | 21100 (2010) | 6 (1981) | 2840 | 121 | 240 | 402 | 518 | 1370 | 3220 | 3960 | 7670 | 13000 |
| 2026-04-27 08:45 | 13.55 | 6330 | 21100 (2010) | 6 (1981) | 2840 | 121 | 240 | 402 | 518 | 1370 | 3220 | 3960 | 7670 | 13000 |
| 2026-04-27 07:45 | 12.70 | 5590 | 21100 (2010) | 6 (1981) | 2840 | 121 | 240 | 402 | 518 | 1370 | 3220 | 3960 | 7670 | 13000 |
| 2026-04-27 06:45 | 11.98 | 4980 | 21100 (2010) | 6 (1981) | 2840 | 121 | 240 | 402 | 518 | 1370 | 3220 | 3960 | 7670 | 13000 |
| 2026-04-27 05:45 | 11.37 | 4490 | 21100 (2010) | 6 (1981) | 2840 | 121 | 240 | 402 | 518 | 1370 | 3220 | 3960 | 7670 | 13000 |
| 2026-04-27 04:45 | 10.85 | 4090 | 21100 (2010) | 6 (1981) | 2840 | 121 | 240 | 402 | 518 | 1370 | 3220 | 3960 | 7670 | 13000 |
| 2026-04-27 04:15 | 10.69 | 3960 | 21100 (2010) | 6 (1981) | 2840 | 121 | 240 | 402 | 518 | 1370 | 3220 | 3960 | 7670 | 13000 |
| 2026-04-27 03:45 | 10.51 | 3830 | 21100 (2010) | 6 (1981) | 2840 | 121 | 240 | 402 | 518 | 1370 | 3220 | 3960 | 7670 | 13000 |
| 2026-04-27 02:45 | 10.15 | 3560 | 21100 (2010) | 6 (1981) | 2840 | 121 | 240 | 402 | 518 | 1370 | 3220 | 3960 | 7670 | 13000 |
| 2026-04-27 01:45 | 9.93 | 3400 | 21100 (2010) | 6 (1981) | 2840 | 121 | 240 | 402 | 518 | 1370 | 3220 | 3960 | 7670 | 13000 |
| 2026-04-27 00:45 | 9.77 | 3290 | 21100 (2010) | 6 (1981) | 2840 | 121 | 240 | 402 | 518 | 1370 | 3220 | 3960 | 7670 | 13000 |
| 2026-04-26 23:45 | 9.65 | 3210 | 21100 (2010) | 6 (1981) | 2840 | 121 | 240 | 402 | 518 | 1370 | 3220 | 3960 | 7670 | 13000 |
| 2026-04-26 22:45 | 9.56 | 3140 | 21600 (2010) | 7 (1981) | 2650 | 141 | 234 | 393 | 515 | 1280 | 4220 | 4750 | 6030 | 8360 |
| 2026-04-26 21:45 | 9.44 | 3060 | 21600 (2010) | 7 (1981) | 2650 | 141 | 234 | 393 | 515 | 1280 | 4220 | 4750 | 6030 | 8360 |
| 2026-04-26 20:45 | 9.23 | 2920 | 21600 (2010) | 7 (1981) | 2650 | 141 | 234 | 393 | 515 | 1280 | 4220 | 4750 | 6030 | 8360 |
| 2026-04-26 19:45 | 8.99 | 2760 | 21600 (2010) | 7 (1981) | 2650 | 141 | 234 | 393 | 515 | 1280 | 4220 | 4750 | 6030 | 8360 |
| 2026-04-26 18:45 | 8.69 | 2560 | 21600 (2010) | 7 (1981) | 2650 | 141 | 234 | 393 | 515 | 1280 | 4220 | 4750 | 6030 | 8360 |
| 2026-04-26 17:45 | 8.52 | 2450 | 21600 (2010) | 7 (1981) | 2650 | 141 | 234 | 393 | 515 | 1280 | 4220 | 4750 | 6030 | 8360 |
| 2026-04-26 16:45 | 8.35 | 2340 | 21600 (2010) | 7 (1981) | 2650 | 141 | 234 | 393 | 515 | 1280 | 4220 | 4750 | 6030 | 8360 |
| 2026-04-26 15:45 | 8.39 | 2370 | 21600 (2010) | 7 (1981) | 2650 | 141 | 234 | 393 | 515 | 1280 | 4220 | 4750 | 6030 | 8360 |
| 2026-04-26 14:45 | 8.45 | 2410 | 21600 (2010) | 7 (1981) | 2650 | 141 | 234 | 393 | 515 | 1280 | 4220 | 4750 | 6030 | 8360 |
| 2026-04-26 13:45 | 8.45 | 2410 | 21600 (2010) | 7 (1981) | 2650 | 141 | 234 | 393 | 515 | 1280 | 4220 | 4750 | 6030 | 8360 |
| 2026-04-26 12:45 | 8.51 | 2440 | 21600 (2010) | 7 (1981) | 2650 | 141 | 234 | 393 | 515 | 1280 | 4220 | 4750 | 6030 | 8360 |
| 2026-04-26 11:45 | 8.53 | 2460 | 21600 (2010) | 7 (1981) | 2650 | 141 | 234 | 393 | 515 | 1280 | 4220 | 4750 | 6030 | 8360 |
| 2026-04-26 10:45 | 8.58 | 2490 | 21600 (2010) | 7 (1981) | 2650 | 141 | 234 | 393 | 515 | 1280 | 4220 | 4750 | 6030 | 8360 |
| 2026-04-26 09:45 | 8.59 | 2490 | 21600 (2010) | 7 (1981) | 2650 | 141 | 234 | 393 | 515 | 1280 | 4220 | 4750 | 6030 | 8360 |
| 2026-04-26 08:45 | 8.62 | 2510 | 21600 (2010) | 7 (1981) | 2650 | 141 | 234 | 393 | 515 | 1280 | 4220 | 4750 | 6030 | 8360 |
| 2026-04-26 07:45 | 8.65 | 2530 | 21600 (2010) | 7 (1981) | 2650 | 141 | 234 | 393 | 515 | 1280 | 4220 | 4750 | 6030 | 8360 |
| 2026-04-26 06:45 | 8.71 | 2570 | 21600 (2010) | 7 (1981) | 2650 | 141 | 234 | 393 | 515 | 1280 | 4220 | 4750 | 6030 | 8360 |
| 2026-04-26 05:45 | 8.71 | 2570 | 21600 (2010) | 7 (1981) | 2650 | 141 | 234 | 393 | 515 | 1280 | 4220 | 4750 | 6030 | 8360 |
| 2026-04-26 04:45 | 8.76 | 2600 | 21600 (2010) | 7 (1981) | 2650 | 141 | 234 | 393 | 515 | 1280 | 4220 | 4750 | 6030 | 8360 |
| 2026-04-26 04:15 | 8.76 | 2600 | 21600 (2010) | 7 (1981) | 2650 | 141 | 234 | 393 | 515 | 1280 | 4220 | 4750 | 6030 | 8360 |
| 2026-04-26 03:45 | 8.76 | 2600 | 21600 (2010) | 7 (1981) | 2650 | 141 | 234 | 393 | 515 | 1280 | 4220 | 4750 | 6030 | 8360 |
| 2026-04-26 02:45 | 8.81 | 2640 | 21600 (2010) | 7 (1981) | 2650 | 141 | 234 | 393 | 515 | 1280 | 4220 | 4750 | 6030 | 8360 |
| 2026-04-26 01:45 | 8.82 | 2640 | 21600 (2010) | 7 (1981) | 2650 | 141 | 234 | 393 | 515 | 1280 | 4220 | 4750 | 6030 | 8360 |
| 2026-04-26 00:45 | 8.85 | 2660 | 21600 (2010) | 7 (1981) | 2650 | 141 | 234 | 393 | 515 | 1280 | 4220 | 4750 | 6030 | 8360 |
| 2026-04-25 23:45 | 8.88 | 2680 | 21600 (2010) | 7 (1981) | 2650 | 141 | 234 | 393 | 515 | 1280 | 4220 | 4750 | 6030 | 8360 |
| 2026-04-25 22:45 | 8.91 | 2700 | 21100 (2010) | 9 (1981) | 2810 | 146 | 244 | 373 | 455 | 1320 | 3900 | 4840 | 6850 | 11700 |
| 2026-04-25 21:45 | 8.97 | 2740 | 21100 (2010) | 9 (1981) | 2810 | 146 | 244 | 373 | 455 | 1320 | 3900 | 4840 | 6850 | 11700 |
| 2026-04-25 20:45 | 8.95 | 2730 | 21100 (2010) | 9 (1981) | 2810 | 146 | 244 | 373 | 455 | 1320 | 3900 | 4840 | 6850 | 11700 |
| 2026-04-25 19:45 | 8.98 | 2750 | 21100 (2010) | 9 (1981) | 2810 | 146 | 244 | 373 | 455 | 1320 | 3900 | 4840 | 6850 | 11700 |
| 2026-04-25 18:45 | 9.04 | 2790 | 21100 (2010) | 9 (1981) | 2810 | 146 | 244 | 373 | 455 | 1320 | 3900 | 4840 | 6850 | 11700 |
| 2026-04-25 17:45 | 9.05 | 2800 | 21100 (2010) | 9 (1981) | 2810 | 146 | 244 | 373 | 455 | 1320 | 3900 | 4840 | 6850 | 11700 |
| 2026-04-25 16:45 | 9.10 | 2830 | 21100 (2010) | 9 (1981) | 2810 | 146 | 244 | 373 | 455 | 1320 | 3900 | 4840 | 6850 | 11700 |
| 2026-04-25 15:45 | 9.09 | 2820 | 21100 (2010) | 9 (1981) | 2810 | 146 | 244 | 373 | 455 | 1320 | 3900 | 4840 | 6850 | 11700 |
| 2026-04-25 14:45 | 9.13 | 2850 | 21100 (2010) | 9 (1981) | 2810 | 146 | 244 | 373 | 455 | 1320 | 3900 | 4840 | 6850 | 11700 |
| 2026-04-25 13:45 | 9.16 | 2870 | 21100 (2010) | 9 (1981) | 2810 | 146 | 244 | 373 | 455 | 1320 | 3900 | 4840 | 6850 | 11700 |
| 2026-04-25 12:45 | 9.16 | 2870 | 21100 (2010) | 9 (1981) | 2810 | 146 | 244 | 373 | 455 | 1320 | 3900 | 4840 | 6850 | 11700 |
| 2026-04-25 11:45 | 9.17 | 2880 | 21100 (2010) | 9 (1981) | 2810 | 146 | 244 | 373 | 455 | 1320 | 3900 | 4840 | 6850 | 11700 |
| 2026-04-25 10:45 | 9.18 | 2880 | 21100 (2010) | 9 (1981) | 2810 | 146 | 244 | 373 | 455 | 1320 | 3900 | 4840 | 6850 | 11700 |
| 2026-04-25 09:45 | 9.13 | 2850 | 21100 (2010) | 9 (1981) | 2810 | 146 | 244 | 373 | 455 | 1320 | 3900 | 4840 | 6850 | 11700 |
| 2026-04-25 08:45 | 9.10 | 2830 | 21100 (2010) | 9 (1981) | 2810 | 146 | 244 | 373 | 455 | 1320 | 3900 | 4840 | 6850 | 11700 |
| 2026-04-25 07:45 | 9.09 | 2820 | 21100 (2010) | 9 (1981) | 2810 | 146 | 244 | 373 | 455 | 1320 | 3900 | 4840 | 6850 | 11700 |
| 2026-04-25 06:45 | 9.04 | 2790 | 21100 (2010) | 9 (1981) | 2810 | 146 | 244 | 373 | 455 | 1320 | 3900 | 4840 | 6850 | 11700 |
| 2026-04-25 05:45 | 8.98 | 2750 | 21100 (2010) | 9 (1981) | 2810 | 146 | 244 | 373 | 455 | 1320 | 3900 | 4840 | 6850 | 11700 |
| 2026-04-25 04:45 | 8.96 | 2740 | 21100 (2010) | 9 (1981) | 2810 | 146 | 244 | 373 | 455 | 1320 | 3900 | 4840 | 6850 | 11700 |
| 2026-04-25 04:15 | 8.91 | 2700 | 21100 (2010) | 9 (1981) | 2810 | 146 | 244 | 373 | 455 | 1320 | 3900 | 4840 | 6850 | 11700 |
| 2026-04-25 03:45 | 8.89 | 2690 | 21100 (2010) | 9 (1981) | 2810 | 146 | 244 | 373 | 455 | 1320 | 3900 | 4840 | 6850 | 11700 |
| 2026-04-25 02:45 | 8.82 | 2640 | 21100 (2010) | 9 (1981) | 2810 | 146 | 244 | 373 | 455 | 1320 | 3900 | 4840 | 6850 | 11700 |
| 2026-04-25 01:45 | 8.80 | 2630 | 21100 (2010) | 9 (1981) | 2810 | 146 | 244 | 373 | 455 | 1320 | 3900 | 4840 | 6850 | 11700 |
| 2026-04-25 00:45 | 8.76 | 2600 | 21100 (2010) | 9 (1981) | 2810 | 146 | 244 | 373 | 455 | 1320 | 3900 | 4840 | 6850 | 11700 |
| 2026-04-24 23:45 | 8.75 | 2600 | 21100 (2010) | 9 (1981) | 2810 | 146 | 244 | 373 | 455 | 1320 | 3900 | 4840 | 6850 | 11700 |
| 2026-04-24 22:45 | 8.71 | 2570 | 19400 (2010) | 11 (1981) | 2950 | 131 | 262 | 392 | 449 | 1410 | 4020 | 4470 | 7730 | 13100 |
| 2026-04-24 21:45 | 8.68 | 2550 | 19400 (2010) | 11 (1981) | 2950 | 131 | 262 | 392 | 449 | 1410 | 4020 | 4470 | 7730 | 13100 |
| 2026-04-24 20:45 | 8.69 | 2560 | 19400 (2010) | 11 (1981) | 2950 | 131 | 262 | 392 | 449 | 1410 | 4020 | 4470 | 7730 | 13100 |
| 2026-04-24 19:45 | 8.68 | 2550 | 19400 (2010) | 11 (1981) | 2950 | 131 | 262 | 392 | 449 | 1410 | 4020 | 4470 | 7730 | 13100 |
| 2026-04-24 18:45 | 8.74 | 2590 | 19400 (2010) | 11 (1981) | 2950 | 131 | 262 | 392 | 449 | 1410 | 4020 | 4470 | 7730 | 13100 |
| 2026-04-24 17:45 | 8.77 | 2610 | 19400 (2010) | 11 (1981) | 2950 | 131 | 262 | 392 | 449 | 1410 | 4020 | 4470 | 7730 | 13100 |
| 2026-04-24 16:45 | 8.82 | 2640 | 19400 (2010) | 11 (1981) | 2950 | 131 | 262 | 392 | 449 | 1410 | 4020 | 4470 | 7730 | 13100 |
| 2026-04-24 15:45 | 8.84 | 2660 | 19400 (2010) | 11 (1981) | 2950 | 131 | 262 | 392 | 449 | 1410 | 4020 | 4470 | 7730 | 13100 |
| 2026-04-24 14:45 | 8.92 | 2710 | 19400 (2010) | 11 (1981) | 2950 | 131 | 262 | 392 | 449 | 1410 | 4020 | 4470 | 7730 | 13100 |
| 2026-04-24 13:45 | 8.98 | 2750 | 19400 (2010) | 11 (1981) | 2950 | 131 | 262 | 392 | 449 | 1410 | 4020 | 4470 | 7730 | 13100 |
| 2026-04-24 12:45 | 9.04 | 2790 | 19400 (2010) | 11 (1981) | 2950 | 131 | 262 | 392 | 449 | 1410 | 4020 | 4470 | 7730 | 13100 |
| 2026-04-24 11:45 | 9.08 | 2820 | 19400 (2010) | 11 (1981) | 2950 | 131 | 262 | 392 | 449 | 1410 | 4020 | 4470 | 7730 | 13100 |
| 2026-04-24 10:45 | 9.12 | 2840 | 19400 (2010) | 11 (1981) | 2950 | 131 | 262 | 392 | 449 | 1410 | 4020 | 4470 | 7730 | 13100 |
| 2026-04-24 09:45 | 9.14 | 2860 | 19400 (2010) | 11 (1981) | 2950 | 131 | 262 | 392 | 449 | 1410 | 4020 | 4470 | 7730 | 13100 |
| 2026-04-24 08:45 | 9.14 | 2860 | 19400 (2010) | 11 (1981) | 2950 | 131 | 262 | 392 | 449 | 1410 | 4020 | 4470 | 7730 | 13100 |
| 2026-04-24 07:45 | 9.10 | 2830 | 19400 (2010) | 11 (1981) | 2950 | 131 | 262 | 392 | 449 | 1410 | 4020 | 4470 | 7730 | 13100 |
| 2026-04-24 06:45 | 8.98 | 2750 | 19400 (2010) | 11 (1981) | 2950 | 131 | 262 | 392 | 449 | 1410 | 4020 | 4470 | 7730 | 13100 |
| 2026-04-24 05:45 | 8.79 | 2620 | 19400 (2010) | 11 (1981) | 2950 | 131 | 262 | 392 | 449 | 1410 | 4020 | 4470 | 7730 | 13100 |
| 2026-04-24 04:45 | 8.59 | 2490 | 19400 (2010) | 11 (1981) | 2950 | 131 | 262 | 392 | 449 | 1410 | 4020 | 4470 | 7730 | 13100 |
| 2026-04-24 04:15 | 8.47 | 2420 | 19400 (2010) | 11 (1981) | 2950 | 131 | 262 | 392 | 449 | 1410 | 4020 | 4470 | 7730 | 13100 |
| 2026-04-24 03:45 | 8.43 | 2390 | 19400 (2010) | 11 (1981) | 2950 | 131 | 262 | 392 | 449 | 1410 | 4020 | 4470 | 7730 | 13100 |
| 2026-04-24 02:45 | 8.36 | 2350 | 19400 (2010) | 11 (1981) | 2950 | 131 | 262 | 392 | 449 | 1410 | 4020 | 4470 | 7730 | 13100 |
| 2026-04-24 01:45 | 8.30 | 2310 | 19400 (2010) | 11 (1981) | 2950 | 131 | 262 | 392 | 449 | 1410 | 4020 | 4470 | 7730 | 13100 |
| 2026-04-24 00:45 | 8.25 | 2280 | 19400 (2010) | 11 (1981) | 2950 | 131 | 262 | 392 | 449 | 1410 | 4020 | 4470 | 7730 | 13100 |
| 2026-04-23 23:45 | 8.23 | 2270 | 19400 (2010) | 11 (1981) | 2950 | 131 | 262 | 392 | 449 | 1410 | 4020 | 4470 | 7730 | 13100 |
| 2026-04-23 22:45 | 8.20 | 2250 | 22900 (1970) | 15 (1981) | 3030 | 122 | 263 | 392 | 465 | 1760 | 3620 | 4510 | 8410 | 13000 |
| 2026-04-23 21:45 | 8.15 | 2220 | 22900 (1970) | 15 (1981) | 3030 | 122 | 263 | 392 | 465 | 1760 | 3620 | 4510 | 8410 | 13000 |
| 2026-04-23 20:45 | 8.17 | 2230 | 22900 (1970) | 15 (1981) | 3030 | 122 | 263 | 392 | 465 | 1760 | 3620 | 4510 | 8410 | 13000 |
| 2026-04-23 19:45 | 8.20 | 2250 | 22900 (1970) | 15 (1981) | 3030 | 122 | 263 | 392 | 465 | 1760 | 3620 | 4510 | 8410 | 13000 |
| 2026-04-23 18:45 | 8.21 | 2260 | 22900 (1970) | 15 (1981) | 3030 | 122 | 263 | 392 | 465 | 1760 | 3620 | 4510 | 8410 | 13000 |
| 2026-04-23 17:45 | 8.20 | 2250 | 22900 (1970) | 15 (1981) | 3030 | 122 | 263 | 392 | 465 | 1760 | 3620 | 4510 | 8410 | 13000 |
| 2026-04-23 16:45 | 8.22 | 2260 | 22900 (1970) | 15 (1981) | 3030 | 122 | 263 | 392 | 465 | 1760 | 3620 | 4510 | 8410 | 13000 |
| 2026-04-23 15:45 | 8.26 | 2290 | 22900 (1970) | 15 (1981) | 3030 | 122 | 263 | 392 | 465 | 1760 | 3620 | 4510 | 8410 | 13000 |
| 2026-04-23 14:45 | 8.25 | 2280 | 22900 (1970) | 15 (1981) | 3030 | 122 | 263 | 392 | 465 | 1760 | 3620 | 4510 | 8410 | 13000 |
| 2026-04-23 13:45 | 8.28 | 2300 | 22900 (1970) | 15 (1981) | 3030 | 122 | 263 | 392 | 465 | 1760 | 3620 | 4510 | 8410 | 13000 |
| 2026-04-23 12:45 | 8.29 | 2300 | 22900 (1970) | 15 (1981) | 3030 | 122 | 263 | 392 | 465 | 1760 | 3620 | 4510 | 8410 | 13000 |
| 2026-04-23 11:45 | 8.29 | 2300 | 22900 (1970) | 15 (1981) | 3030 | 122 | 263 | 392 | 465 | 1760 | 3620 | 4510 | 8410 | 13000 |
| 2026-04-23 10:45 | 8.30 | 2310 | 22900 (1970) | 15 (1981) | 3030 | 122 | 263 | 392 | 465 | 1760 | 3620 | 4510 | 8410 | 13000 |
| 2026-04-23 09:45 | 8.32 | 2320 | 22900 (1970) | 15 (1981) | 3030 | 122 | 263 | 392 | 465 | 1760 | 3620 | 4510 | 8410 | 13000 |
| 2026-04-23 08:45 | 8.33 | 2330 | 22900 (1970) | 15 (1981) | 3030 | 122 | 263 | 392 | 465 | 1760 | 3620 | 4510 | 8410 | 13000 |
| 2026-04-23 07:45 | 8.33 | 2330 | 22900 (1970) | 15 (1981) | 3030 | 122 | 263 | 392 | 465 | 1760 | 3620 | 4510 | 8410 | 13000 |
| 2026-04-23 06:45 | 8.34 | 2340 | 22900 (1970) | 15 (1981) | 3030 | 122 | 263 | 392 | 465 | 1760 | 3620 | 4510 | 8410 | 13000 |
| 2026-04-23 05:45 | 8.34 | 2340 | 22900 (1970) | 15 (1981) | 3030 | 122 | 263 | 392 | 465 | 1760 | 3620 | 4510 | 8410 | 13000 |
| 2026-04-23 04:45 | 8.35 | 2340 | 22900 (1970) | 15 (1981) | 3030 | 122 | 263 | 392 | 465 | 1760 | 3620 | 4510 | 8410 | 13000 |
| 2026-04-23 04:15 | 8.35 | 2340 | 22900 (1970) | 15 (1981) | 3030 | 122 | 263 | 392 | 465 | 1760 | 3620 | 4510 | 8410 | 13000 |
| 2026-04-23 03:45 | 8.34 | 2340 | 22900 (1970) | 15 (1981) | 3030 | 122 | 263 | 392 | 465 | 1760 | 3620 | 4510 | 8410 | 13000 |
| 2026-04-23 02:45 | 8.34 | 2340 | 22900 (1970) | 15 (1981) | 3030 | 122 | 263 | 392 | 465 | 1760 | 3620 | 4510 | 8410 | 13000 |
| 2026-04-23 01:45 | 8.33 | 2330 | 22900 (1970) | 15 (1981) | 3030 | 122 | 263 | 392 | 465 | 1760 | 3620 | 4510 | 8410 | 13000 |
| 2026-04-23 00:45 | 8.31 | 2320 | 22900 (1970) | 15 (1981) | 3030 | 122 | 263 | 392 | 465 | 1760 | 3620 | 4510 | 8410 | 13000 |
| 2026-04-22 23:45 | 8.28 | 2300 | 22900 (1970) | 15 (1981) | 3030 | 122 | 263 | 392 | 465 | 1760 | 3620 | 4510 | 8410 | 13000 |
| 2026-04-22 22:45 | 8.25 | 2280 | 23600 (1970) | 5 (1981) | 3100 | 130 | 271 | 415 | 508 | 1420 | 3650 | 4250 | 6360 | 16600 |
| 2026-04-22 21:45 | 8.24 | 2270 | 23600 (1970) | 5 (1981) | 3100 | 130 | 271 | 415 | 508 | 1420 | 3650 | 4250 | 6360 | 16600 |
| 2026-04-22 20:45 | 8.17 | 2230 | 23600 (1970) | 5 (1981) | 3100 | 130 | 271 | 415 | 508 | 1420 | 3650 | 4250 | 6360 | 16600 |
| 2026-04-22 19:45 | 8.11 | 2190 | 23600 (1970) | 5 (1981) | 3100 | 130 | 271 | 415 | 508 | 1420 | 3650 | 4250 | 6360 | 16600 |
| 2026-04-22 18:45 | 8.04 | 2150 | 23600 (1970) | 5 (1981) | 3100 | 130 | 271 | 415 | 508 | 1420 | 3650 | 4250 | 6360 | 16600 |
| 2026-04-22 17:45 | 7.97 | 2110 | 23600 (1970) | 5 (1981) | 3100 | 130 | 271 | 415 | 508 | 1420 | 3650 | 4250 | 6360 | 16600 |
| 2026-04-22 16:45 | 7.85 | 2040 | 23600 (1970) | 5 (1981) | 3100 | 130 | 271 | 415 | 508 | 1420 | 3650 | 4250 | 6360 | 16600 |
| 2026-04-22 15:45 | 7.75 | 1980 | 23600 (1970) | 5 (1981) | 3100 | 130 | 271 | 415 | 508 | 1420 | 3650 | 4250 | 6360 | 16600 |
| 2026-04-22 14:45 | 7.68 | 1940 | 23600 (1970) | 5 (1981) | 3100 | 130 | 271 | 415 | 508 | 1420 | 3650 | 4250 | 6360 | 16600 |
| 2026-04-22 13:45 | 7.61 | 1900 | 23600 (1970) | 5 (1981) | 3100 | 130 | 271 | 415 | 508 | 1420 | 3650 | 4250 | 6360 | 16600 |
| 2026-04-22 12:45 | 7.56 | 1870 | 23600 (1970) | 5 (1981) | 3100 | 130 | 271 | 415 | 508 | 1420 | 3650 | 4250 | 6360 | 16600 |
| 2026-04-22 11:45 | 7.52 | 1840 | 23600 (1970) | 5 (1981) | 3100 | 130 | 271 | 415 | 508 | 1420 | 3650 | 4250 | 6360 | 16600 |
| 2026-04-22 10:45 | 7.50 | 1830 | 23600 (1970) | 5 (1981) | 3100 | 130 | 271 | 415 | 508 | 1420 | 3650 | 4250 | 6360 | 16600 |
| 2026-04-22 09:45 | 7.51 | 1840 | 23600 (1970) | 5 (1981) | 3100 | 130 | 271 | 415 | 508 | 1420 | 3650 | 4250 | 6360 | 16600 |
| 2026-04-22 08:45 | 7.51 | 1840 | 23600 (1970) | 5 (1981) | 3100 | 130 | 271 | 415 | 508 | 1420 | 3650 | 4250 | 6360 | 16600 |
| 2026-04-22 07:45 | 7.56 | 1870 | 23600 (1970) | 5 (1981) | 3100 | 130 | 271 | 415 | 508 | 1420 | 3650 | 4250 | 6360 | 16600 |
| 2026-04-22 06:45 | 7.59 | 1880 | 23600 (1970) | 5 (1981) | 3100 | 130 | 271 | 415 | 508 | 1420 | 3650 | 4250 | 6360 | 16600 |
| 2026-04-22 05:45 | 7.61 | 1900 | 23600 (1970) | 5 (1981) | 3100 | 130 | 271 | 415 | 508 | 1420 | 3650 | 4250 | 6360 | 16600 |
| 2026-04-22 04:45 | 7.65 | 1920 | 23600 (1970) | 5 (1981) | 3100 | 130 | 271 | 415 | 508 | 1420 | 3650 | 4250 | 6360 | 16600 |
| 2026-04-22 04:00 | 7.70 | 1950 | 23600 (1970) | 5 (1981) | 3100 | 130 | 271 | 415 | 508 | 1420 | 3650 | 4250 | 6360 | 16600 |
| 2026-04-22 03:45 | 7.72 | 1960 | 23600 (1970) | 5 (1981) | 3100 | 130 | 271 | 415 | 508 | 1420 | 3650 | 4250 | 6360 | 16600 |
| 2026-04-22 02:45 | 7.76 | 1980 | 23600 (1970) | 5 (1981) | 3100 | 130 | 271 | 415 | 508 | 1420 | 3650 | 4250 | 6360 | 16600 |
| 2026-04-22 01:45 | 7.81 | 2010 | 23600 (1970) | 5 (1981) | 3100 | 130 | 271 | 415 | 508 | 1420 | 3650 | 4250 | 6360 | 16600 |
| 2026-04-22 00:45 | 7.84 | 2030 | 23600 (1970) | 5 (1981) | 3100 | 130 | 271 | 415 | 508 | 1420 | 3650 | 4250 | 6360 | 16600 |
| 2026-04-21 23:45 | 7.90 | 2070 | 23600 (1970) | 5 (1981) | 3100 | 130 | 271 | 415 | 508 | 1420 | 3650 | 4250 | 6360 | 16600 |
| 2026-04-21 22:45 | 7.96 | 2100 | 21000 (1970) | 2 (1981) | 2950 | 144 | 240 | 361 | 470 | 1410 | 3440 | 3840 | 6860 | 16200 |
| 2026-04-21 21:45 | 8.01 | 2130 | 21000 (1970) | 2 (1981) | 2950 | 144 | 240 | 361 | 470 | 1410 | 3440 | 3840 | 6860 | 16200 |
| 2026-04-21 20:45 | 8.07 | 2170 | 21000 (1970) | 2 (1981) | 2950 | 144 | 240 | 361 | 470 | 1410 | 3440 | 3840 | 6860 | 16200 |
| 2026-04-21 19:45 | 8.11 | 2190 | 21000 (1970) | 2 (1981) | 2950 | 144 | 240 | 361 | 470 | 1410 | 3440 | 3840 | 6860 | 16200 |
| 2026-04-21 18:45 | 8.19 | 2240 | 21000 (1970) | 2 (1981) | 2950 | 144 | 240 | 361 | 470 | 1410 | 3440 | 3840 | 6860 | 16200 |
| 2026-04-21 17:45 | 8.26 | 2290 | 21000 (1970) | 2 (1981) | 2950 | 144 | 240 | 361 | 470 | 1410 | 3440 | 3840 | 6860 | 16200 |
| 2026-04-21 16:45 | 8.31 | 2320 | 21000 (1970) | 2 (1981) | 2950 | 144 | 240 | 361 | 470 | 1410 | 3440 | 3840 | 6860 | 16200 |
| 2026-04-21 15:45 | 8.39 | 2370 | 21000 (1970) | 2 (1981) | 2950 | 144 | 240 | 361 | 470 | 1410 | 3440 | 3840 | 6860 | 16200 |
| 2026-04-21 14:45 | 8.44 | 2400 | 21000 (1970) | 2 (1981) | 2950 | 144 | 240 | 361 | 470 | 1410 | 3440 | 3840 | 6860 | 16200 |
| 2026-04-21 13:45 | 8.53 | 2460 | 21000 (1970) | 2 (1981) | 2950 | 144 | 240 | 361 | 470 | 1410 | 3440 | 3840 | 6860 | 16200 |
| 2026-04-21 12:45 | 8.60 | 2500 | 21000 (1970) | 2 (1981) | 2950 | 144 | 240 | 361 | 470 | 1410 | 3440 | 3840 | 6860 | 16200 |
| 2026-04-21 11:45 | 8.69 | 2560 | 21000 (1970) | 2 (1981) | 2950 | 144 | 240 | 361 | 470 | 1410 | 3440 | 3840 | 6860 | 16200 |
| 2026-04-21 10:45 | 8.77 | 2610 | 21000 (1970) | 2 (1981) | 2950 | 144 | 240 | 361 | 470 | 1410 | 3440 | 3840 | 6860 | 16200 |
| 2026-04-21 09:45 | 8.87 | 2680 | 21000 (1970) | 2 (1981) | 2950 | 144 | 240 | 361 | 470 | 1410 | 3440 | 3840 | 6860 | 16200 |
| 2026-04-21 08:45 | 8.93 | 2720 | 21000 (1970) | 2 (1981) | 2950 | 144 | 240 | 361 | 470 | 1410 | 3440 | 3840 | 6860 | 16200 |
| 2026-04-21 07:45 | 9.07 | 2810 | 21000 (1970) | 2 (1981) | 2950 | 144 | 240 | 361 | 470 | 1410 | 3440 | 3840 | 6860 | 16200 |
| 2026-04-21 06:45 | 9.19 | 2890 | 21000 (1970) | 2 (1981) | 2950 | 144 | 240 | 361 | 470 | 1410 | 3440 | 3840 | 6860 | 16200 |
| 2026-04-21 05:45 | 9.30 | 2960 | 21000 (1970) | 2 (1981) | 2950 | 144 | 240 | 361 | 470 | 1410 | 3440 | 3840 | 6860 | 16200 |
| 2026-04-21 04:45 | 9.41 | 3040 | 21000 (1970) | 2 (1981) | 2950 | 144 | 240 | 361 | 470 | 1410 | 3440 | 3840 | 6860 | 16200 |
| 2026-04-21 04:00 | 9.49 | 3090 | 21000 (1970) | 2 (1981) | 2950 | 144 | 240 | 361 | 470 | 1410 | 3440 | 3840 | 6860 | 16200 |
| 2026-04-21 03:45 | 9.56 | 3140 | 21000 (1970) | 2 (1981) | 2950 | 144 | 240 | 361 | 470 | 1410 | 3440 | 3840 | 6860 | 16200 |
| 2026-04-21 02:45 | 9.68 | 3230 | 21000 (1970) | 2 (1981) | 2950 | 144 | 240 | 361 | 470 | 1410 | 3440 | 3840 | 6860 | 16200 |
| 2026-04-21 01:45 | 9.81 | 3320 | 21000 (1970) | 2 (1981) | 2950 | 144 | 240 | 361 | 470 | 1410 | 3440 | 3840 | 6860 | 16200 |
| 2026-04-21 00:45 | 1 | 3450 | 21000 (1970) | 2 (1981) | 2950 | 144 | 240 | 361 | 470 | 1410 | 3440 | 3840 | 6860 | 16200 |
| 2026-04-20 23:45 | 10.14 | 3560 | 21000 (1970) | 2 (1981) | 2950 | 144 | 240 | 361 | 470 | 1410 | 3440 | 3840 | 6860 | 16200 |
| 2026-04-20 22:45 | 10.34 | 3700 | 22100 (1970) | 3 (1981) | 2780 | 99 | 193 | 365 | 412 | 1450 | 3780 | 4990 | 7150 | 11300 |
| 2026-04-20 21:45 | 10.52 | 3840 | 22100 (1970) | 3 (1981) | 2780 | 99 | 193 | 365 | 412 | 1450 | 3780 | 4990 | 7150 | 11300 |
| 2026-04-20 20:45 | 10.73 | 3990 | 22100 (1970) | 3 (1981) | 2780 | 99 | 193 | 365 | 412 | 1450 | 3780 | 4990 | 7150 | 11300 |
| 2026-04-20 19:45 | 10.90 | 4120 | 22100 (1970) | 3 (1981) | 2780 | 99 | 193 | 365 | 412 | 1450 | 3780 | 4990 | 7150 | 11300 |
| 2026-04-20 18:45 | 11.12 | 4290 | 22100 (1970) | 3 (1981) | 2780 | 99 | 193 | 365 | 412 | 1450 | 3780 | 4990 | 7150 | 11300 |
| 2026-04-20 17:45 | 11.34 | 4470 | 22100 (1970) | 3 (1981) | 2780 | 99 | 193 | 365 | 412 | 1450 | 3780 | 4990 | 7150 | 11300 |
| 2026-04-20 16:45 | 11.55 | 4630 | 22100 (1970) | 3 (1981) | 2780 | 99 | 193 | 365 | 412 | 1450 | 3780 | 4990 | 7150 | 11300 |
| 2026-04-20 15:45 | 11.77 | 4810 | 22100 (1970) | 3 (1981) | 2780 | 99 | 193 | 365 | 412 | 1450 | 3780 | 4990 | 7150 | 11300 |
| 2026-04-20 14:45 | 11.98 | 4980 | 22100 (1970) | 3 (1981) | 2780 | 99 | 193 | 365 | 412 | 1450 | 3780 | 4990 | 7150 | 11300 |
| 2026-04-20 13:45 | 12.24 | 5200 | 22100 (1970) | 3 (1981) | 2780 | 99 | 193 | 365 | 412 | 1450 | 3780 | 4990 | 7150 | 11300 |
| 2026-04-20 12:45 | 12.44 | 5370 | 22100 (1970) | 3 (1981) | 2780 | 99 | 193 | 365 | 412 | 1450 | 3780 | 4990 | 7150 | 11300 |
| 2026-04-20 11:45 | 12.66 | 5550 | 22100 (1970) | 3 (1981) | 2780 | 99 | 193 | 365 | 412 | 1450 | 3780 | 4990 | 7150 | 11300 |
| 2026-04-20 10:45 | 12.88 | 5740 | 22100 (1970) | 3 (1981) | 2780 | 99 | 193 | 365 | 412 | 1450 | 3780 | 4990 | 7150 | 11300 |
| 2026-04-20 09:45 | 13.08 | 5920 | 22100 (1970) | 3 (1981) | 2780 | 99 | 193 | 365 | 412 | 1450 | 3780 | 4990 | 7150 | 11300 |
| 2026-04-20 08:45 | 13.28 | 6090 | 22100 (1970) | 3 (1981) | 2780 | 99 | 193 | 365 | 412 | 1450 | 3780 | 4990 | 7150 | 11300 |
| 2026-04-20 07:45 | 13.50 | 6290 | 22100 (1970) | 3 (1981) | 2780 | 99 | 193 | 365 | 412 | 1450 | 3780 | 4990 | 7150 | 11300 |
| 2026-04-20 06:45 | 13.67 | 6440 | 22100 (1970) | 3 (1981) | 2780 | 99 | 193 | 365 | 412 | 1450 | 3780 | 4990 | 7150 | 11300 |
| 2026-04-20 05:45 | 13.86 | 6610 | 22100 (1970) | 3 (1981) | 2780 | 99 | 193 | 365 | 412 | 1450 | 3780 | 4990 | 7150 | 11300 |
| 2026-04-20 04:45 | 14.02 | 6760 | 22100 (1970) | 3 (1981) | 2780 | 99 | 193 | 365 | 412 | 1450 | 3780 | 4990 | 7150 | 11300 |
| 2026-04-20 04:00 | 14.14 | 6870 | 22100 (1970) | 3 (1981) | 2780 | 99 | 193 | 365 | 412 | 1450 | 3780 | 4990 | 7150 | 11300 |
| 2026-04-20 03:45 | 14.19 | 6920 | 22100 (1970) | 3 (1981) | 2780 | 99 | 193 | 365 | 412 | 1450 | 3780 | 4990 | 7150 | 11300 |
| 2026-04-20 02:45 | 14.32 | 7040 | 22100 (1970) | 3 (1981) | 2780 | 99 | 193 | 365 | 412 | 1450 | 3780 | 4990 | 7150 | 11300 |
| 2026-04-20 01:45 | 14.46 | 7170 | 22100 (1970) | 3 (1981) | 2780 | 99 | 193 | 365 | 412 | 1450 | 3780 | 4990 | 7150 | 11300 |
| 2026-04-20 00:45 | 14.58 | 7280 | 22100 (1970) | 3 (1981) | 2780 | 99 | 193 | 365 | 412 | 1450 | 3780 | 4990 | 7150 | 11300 |
| 2026-04-19 23:45 | 14.72 | 7410 | 22100 (1970) | 3 (1981) | 2780 | 99 | 193 | 365 | 412 | 1450 | 3780 | 4990 | 7150 | 11300 |
| 2026-04-19 22:45 | 14.82 | 7510 | 16800 (1999) | 5 (1981) | 2810 | 68 | 179 | 333 | 438 | 1390 | 3910 | 4550 | 7800 | 12900 |
| 2026-04-19 21:45 | 14.92 | 7600 | 16800 (1999) | 5 (1981) | 2810 | 68 | 179 | 333 | 438 | 1390 | 3910 | 4550 | 7800 | 12900 |
| 2026-04-19 20:45 | 15.04 | 7720 | 16800 (1999) | 5 (1981) | 2810 | 68 | 179 | 333 | 438 | 1390 | 3910 | 4550 | 7800 | 12900 |
| 2026-04-19 19:45 | 15.13 | 7810 | 16800 (1999) | 5 (1981) | 2810 | 68 | 179 | 333 | 438 | 1390 | 3910 | 4550 | 7800 | 12900 |
| 2026-04-19 18:45 | 15.21 | 7880 | 16800 (1999) | 5 (1981) | 2810 | 68 | 179 | 333 | 438 | 1390 | 3910 | 4550 | 7800 | 12900 |
| 2026-04-19 17:45 | 15.30 | 7970 | 16800 (1999) | 5 (1981) | 2810 | 68 | 179 | 333 | 438 | 1390 | 3910 | 4550 | 7800 | 12900 |
| 2026-04-19 16:45 | 15.38 | 8050 | 16800 (1999) | 5 (1981) | 2810 | 68 | 179 | 333 | 438 | 1390 | 3910 | 4550 | 7800 | 12900 |
| 2026-04-19 15:45 | 15.46 | 8130 | 16800 (1999) | 5 (1981) | 2810 | 68 | 179 | 333 | 438 | 1390 | 3910 | 4550 | 7800 | 12900 |
| 2026-04-19 14:45 | 15.54 | 8210 | 16800 (1999) | 5 (1981) | 2810 | 68 | 179 | 333 | 438 | 1390 | 3910 | 4550 | 7800 | 12900 |
| 2026-04-19 13:45 | 15.64 | 8300 | 16800 (1999) | 5 (1981) | 2810 | 68 | 179 | 333 | 438 | 1390 | 3910 | 4550 | 7800 | 12900 |
| 2026-04-19 12:45 | 15.71 | 8370 | 16800 (1999) | 5 (1981) | 2810 | 68 | 179 | 333 | 438 | 1390 | 3910 | 4550 | 7800 | 12900 |
| 2026-04-19 11:45 | 15.78 | 8440 | 16800 (1999) | 5 (1981) | 2810 | 68 | 179 | 333 | 438 | 1390 | 3910 | 4550 | 7800 | 12900 |
| 2026-04-19 10:45 | 15.87 | 8530 | 16800 (1999) | 5 (1981) | 2810 | 68 | 179 | 333 | 438 | 1390 | 3910 | 4550 | 7800 | 12900 |
| 2026-04-19 09:45 | 15.94 | 8600 | 16800 (1999) | 5 (1981) | 2810 | 68 | 179 | 333 | 438 | 1390 | 3910 | 4550 | 7800 | 12900 |
| 2026-04-19 08:45 | 16.02 | 8680 | 16800 (1999) | 5 (1981) | 2810 | 68 | 179 | 333 | 438 | 1390 | 3910 | 4550 | 7800 | 12900 |
| 2026-04-19 07:45 | 16.10 | 8760 | 16800 (1999) | 5 (1981) | 2810 | 68 | 179 | 333 | 438 | 1390 | 3910 | 4550 | 7800 | 12900 |
| 2026-04-19 06:45 | 16.17 | 8830 | 16800 (1999) | 5 (1981) | 2810 | 68 | 179 | 333 | 438 | 1390 | 3910 | 4550 | 7800 | 12900 |
| 2026-04-19 05:45 | 16.24 | 8910 | 16800 (1999) | 5 (1981) | 2810 | 68 | 179 | 333 | 438 | 1390 | 3910 | 4550 | 7800 | 12900 |
| 2026-04-19 04:45 | 16.31 | 8980 | 16800 (1999) | 5 (1981) | 2810 | 68 | 179 | 333 | 438 | 1390 | 3910 | 4550 | 7800 | 12900 |
| 2026-04-19 04:00 | 16.34 | 9010 | 16800 (1999) | 5 (1981) | 2810 | 68 | 179 | 333 | 438 | 1390 | 3910 | 4550 | 7800 | 12900 |
| 2026-04-19 03:45 | 16.35 | 9020 | 16800 (1999) | 5 (1981) | 2810 | 68 | 179 | 333 | 438 | 1390 | 3910 | 4550 | 7800 | 12900 |
| 2026-04-19 02:45 | 16.42 | 9090 | 16800 (1999) | 5 (1981) | 2810 | 68 | 179 | 333 | 438 | 1390 | 3910 | 4550 | 7800 | 12900 |
| 2026-04-19 01:45 | 16.47 | 9140 | 16800 (1999) | 5 (1981) | 2810 | 68 | 179 | 333 | 438 | 1390 | 3910 | 4550 | 7800 | 12900 |
| 2026-04-19 00:45 | 16.50 | 9170 | 16800 (1999) | 5 (1981) | 2810 | 68 | 179 | 333 | 438 | 1390 | 3910 | 4550 | 7800 | 12900 |
| 2026-04-18 23:45 | 16.52 | 9190 | 16800 (1999) | 5 (1981) | 2810 | 68 | 179 | 333 | 438 | 1390 | 3910 | 4550 | 7800 | 12900 |
| 2026-04-18 22:45 | 16.52 | 9190 | 17700 (1973) | 3 (1981) | 2720 | 42 | 169 | 318 | 446 | 1400 | 4070 | 4800 | 6560 | 8950 |
| 2026-04-18 21:45 | 16.50 | 9170 | 17700 (1973) | 3 (1981) | 2720 | 42 | 169 | 318 | 446 | 1400 | 4070 | 4800 | 6560 | 8950 |
| 2026-04-18 20:45 | 16.44 | 9110 | 17700 (1973) | 3 (1981) | 2720 | 42 | 169 | 318 | 446 | 1400 | 4070 | 4800 | 6560 | 8950 |
| 2026-04-18 19:45 | 16.36 | 9030 | 17700 (1973) | 3 (1981) | 2720 | 42 | 169 | 318 | 446 | 1400 | 4070 | 4800 | 6560 | 8950 |
| 2026-04-18 18:45 | 16.24 | 8910 | 17700 (1973) | 3 (1981) | 2720 | 42 | 169 | 318 | 446 | 1400 | 4070 | 4800 | 6560 | 8950 |
| 2026-04-18 17:45 | 16.09 | 8750 | 17700 (1973) | 3 (1981) | 2720 | 42 | 169 | 318 | 446 | 1400 | 4070 | 4800 | 6560 | 8950 |
| 2026-04-18 16:45 | 15.92 | 8580 | 17700 (1973) | 3 (1981) | 2720 | 42 | 169 | 318 | 446 | 1400 | 4070 | 4800 | 6560 | 8950 |
| 2026-04-18 15:45 | 15.71 | 8370 | 17700 (1973) | 3 (1981) | 2720 | 42 | 169 | 318 | 446 | 1400 | 4070 | 4800 | 6560 | 8950 |
| 2026-04-18 14:45 | 15.49 | 8160 | 17700 (1973) | 3 (1981) | 2720 | 42 | 169 | 318 | 446 | 1400 | 4070 | 4800 | 6560 | 8950 |
| 2026-04-18 13:45 | 15.25 | 7920 | 17700 (1973) | 3 (1981) | 2720 | 42 | 169 | 318 | 446 | 1400 | 4070 | 4800 | 6560 | 8950 |
| 2026-04-18 12:45 | 15.00 | 7680 | 17700 (1973) | 3 (1981) | 2720 | 42 | 169 | 318 | 446 | 1400 | 4070 | 4800 | 6560 | 8950 |
| 2026-04-18 11:45 | 14.78 | 7470 | 17700 (1973) | 3 (1981) | 2720 | 42 | 169 | 318 | 446 | 1400 | 4070 | 4800 | 6560 | 8950 |
| 2026-04-18 10:45 | 14.53 | 7230 | 17700 (1973) | 3 (1981) | 2720 | 42 | 169 | 318 | 446 | 1400 | 4070 | 4800 | 6560 | 8950 |
| 2026-04-18 09:45 | 14.29 | 7010 | 17700 (1973) | 3 (1981) | 2720 | 42 | 169 | 318 | 446 | 1400 | 4070 | 4800 | 6560 | 8950 |
| 2026-04-18 08:45 | 14.04 | 6780 | 17700 (1973) | 3 (1981) | 2720 | 42 | 169 | 318 | 446 | 1400 | 4070 | 4800 | 6560 | 8950 |
| 2026-04-18 07:45 | 13.83 | 6590 | 17700 (1973) | 3 (1981) | 2720 | 42 | 169 | 318 | 446 | 1400 | 4070 | 4800 | 6560 | 8950 |
| 2026-04-18 06:45 | 13.66 | 6430 | 17700 (1973) | 3 (1981) | 2720 | 42 | 169 | 318 | 446 | 1400 | 4070 | 4800 | 6560 | 8950 |
| 2026-04-18 05:45 | 13.51 | 6300 | 17700 (1973) | 3 (1981) | 2720 | 42 | 169 | 318 | 446 | 1400 | 4070 | 4800 | 6560 | 8950 |
| 2026-04-18 04:45 | 13.35 | 6160 | 17700 (1973) | 3 (1981) | 2720 | 42 | 169 | 318 | 446 | 1400 | 4070 | 4800 | 6560 | 8950 |
| 2026-04-18 04:00 | 13.21 | 6030 | 17700 (1973) | 3 (1981) | 2720 | 42 | 169 | 318 | 446 | 1400 | 4070 | 4800 | 6560 | 8950 |
| 2026-04-18 03:45 | 13.17 | 6000 | 17700 (1973) | 3 (1981) | 2720 | 42 | 169 | 318 | 446 | 1400 | 4070 | 4800 | 6560 | 8950 |
| 2026-04-18 02:45 | 12.96 | 5810 | 17700 (1973) | 3 (1981) | 2720 | 42 | 169 | 318 | 446 | 1400 | 4070 | 4800 | 6560 | 8950 |
| 2026-04-18 01:45 | 12.73 | 5610 | 17700 (1973) | 3 (1981) | 2720 | 42 | 169 | 318 | 446 | 1400 | 4070 | 4800 | 6560 | 8950 |
| 2026-04-18 00:45 | 12.50 | 5420 | 17700 (1973) | 3 (1981) | 2720 | 42 | 169 | 318 | 446 | 1400 | 4070 | 4800 | 6560 | 8950 |
| 2026-04-17 23:45 | 12.23 | 5190 | 17700 (1973) | 3 (1981) | 2720 | 42 | 169 | 318 | 446 | 1400 | 4070 | 4800 | 6560 | 8950 |
| 2026-04-17 22:45 | 11.80 | 4840 | 18000 (1999) | 4 (1977) | 2750 | 40 | 161 | 343 | 425 | 1350 | 2970 | 4610 | 7160 | 13600 |
| 2026-04-17 21:45 | 11.17 | 4330 | 18000 (1999) | 4 (1977) | 2750 | 40 | 161 | 343 | 425 | 1350 | 2970 | 4610 | 7160 | 13600 |
| 2026-04-17 20:45 | 10.52 | 3840 | 18000 (1999) | 4 (1977) | 2750 | 40 | 161 | 343 | 425 | 1350 | 2970 | 4610 | 7160 | 13600 |
| 2026-04-17 20:00 | 9.94 | 3410 | 18000 (1999) | 4 (1977) | 2750 | 40 | 161 | 343 | 425 | 1350 | 2970 | 4610 | 7160 | 13600 |
| 2026-04-17 19:45 | 9.67 | 3220 | 18000 (1999) | 4 (1977) | 2750 | 40 | 161 | 343 | 425 | 1350 | 2970 | 4610 | 7160 | 13600 |
| 2026-04-17 18:45 | 8.97 | 2740 | 18000 (1999) | 4 (1977) | 2750 | 40 | 161 | 343 | 425 | 1350 | 2970 | 4610 | 7160 | 13600 |
| 2026-04-17 17:45 | 8.75 | 2600 | 18000 (1999) | 4 (1977) | 2750 | 40 | 161 | 343 | 425 | 1350 | 2970 | 4610 | 7160 | 13600 |
| 2026-04-17 16:45 | 8.73 | 2580 | 18000 (1999) | 4 (1977) | 2750 | 40 | 161 | 343 | 425 | 1350 | 2970 | 4610 | 7160 | 13600 |
| 2026-04-17 15:45 | 8.81 | 2640 | 18000 (1999) | 4 (1977) | 2750 | 40 | 161 | 343 | 425 | 1350 | 2970 | 4610 | 7160 | 13600 |
| 2026-04-17 14:45 | 8.87 | 2680 | 18000 (1999) | 4 (1977) | 2750 | 40 | 161 | 343 | 425 | 1350 | 2970 | 4610 | 7160 | 13600 |
| 2026-04-17 13:45 | 8.96 | 2740 | 18000 (1999) | 4 (1977) | 2750 | 40 | 161 | 343 | 425 | 1350 | 2970 | 4610 | 7160 | 13600 |
| 2026-04-17 12:45 | 9.04 | 2790 | 18000 (1999) | 4 (1977) | 2750 | 40 | 161 | 343 | 425 | 1350 | 2970 | 4610 | 7160 | 13600 |
| 2026-04-17 11:45 | 9.10 | 2830 | 18000 (1999) | 4 (1977) | 2750 | 40 | 161 | 343 | 425 | 1350 | 2970 | 4610 | 7160 | 13600 |
| 2026-04-17 10:45 | 9.21 | 2900 | 18000 (1999) | 4 (1977) | 2750 | 40 | 161 | 343 | 425 | 1350 | 2970 | 4610 | 7160 | 13600 |
| 2026-04-17 09:45 | 9.27 | 2940 | 18000 (1999) | 4 (1977) | 2750 | 40 | 161 | 343 | 425 | 1350 | 2970 | 4610 | 7160 | 13600 |
| 2026-04-17 08:45 | 9.35 | 3000 | 18000 (1999) | 4 (1977) | 2750 | 40 | 161 | 343 | 425 | 1350 | 2970 | 4610 | 7160 | 13600 |
| 2026-04-17 07:45 | 9.46 | 3070 | 18000 (1999) | 4 (1977) | 2750 | 40 | 161 | 343 | 425 | 1350 | 2970 | 4610 | 7160 | 13600 |
| 2026-04-17 06:45 | 9.58 | 3160 | 18000 (1999) | 4 (1977) | 2750 | 40 | 161 | 343 | 425 | 1350 | 2970 | 4610 | 7160 | 13600 |
| 2026-04-17 05:45 | 9.66 | 3210 | 18000 (1999) | 4 (1977) | 2750 | 40 | 161 | 343 | 425 | 1350 | 2970 | 4610 | 7160 | 13600 |
| 2026-04-17 04:45 | 9.77 | 3290 | 18000 (1999) | 4 (1977) | 2750 | 40 | 161 | 343 | 425 | 1350 | 2970 | 4610 | 7160 | 13600 |
| 2026-04-17 03:45 | 9.89 | 3380 | 18000 (1999) | 4 (1977) | 2750 | 40 | 161 | 343 | 425 | 1350 | 2970 | 4610 | 7160 | 13600 |
| 2026-04-17 02:45 | 10.02 | 3470 | 18000 (1999) | 4 (1977) | 2750 | 40 | 161 | 343 | 425 | 1350 | 2970 | 4610 | 7160 | 13600 |
| 2026-04-17 01:45 | 10.14 | 3560 | 18000 (1999) | 4 (1977) | 2750 | 40 | 161 | 343 | 425 | 1350 | 2970 | 4610 | 7160 | 13600 |
| 2026-04-17 00:45 | 10.25 | 3640 | 18000 (1999) | 4 (1977) | 2750 | 40 | 161 | 343 | 425 | 1350 | 2970 | 4610 | 7160 | 13600 |
| 2026-04-16 23:45 | 10.37 | 3730 | 18000 (1999) | 4 (1977) | 2750 | 40 | 161 | 343 | 425 | 1350 | 2970 | 4610 | 7160 | 13600 |
| 2026-04-16 22:45 | 10.50 | 3820 | 17300 (1999) | 3 (1977) | 2930 | 29 | 172 | 349 | 382 | 1070 | 4300 | 4810 | 9180 | 13600 |
| 2026-04-16 21:45 | 10.62 | 3910 | 17300 (1999) | 3 (1977) | 2930 | 29 | 172 | 349 | 382 | 1070 | 4300 | 4810 | 9180 | 13600 |
| 2026-04-16 20:45 | 10.75 | 4010 | 17300 (1999) | 3 (1977) | 2930 | 29 | 172 | 349 | 382 | 1070 | 4300 | 4810 | 9180 | 13600 |
| 2026-04-16 19:45 | 10.86 | 4090 | 17300 (1999) | 3 (1977) | 2930 | 29 | 172 | 349 | 382 | 1070 | 4300 | 4810 | 9180 | 13600 |
| 2026-04-16 18:45 | 11.02 | 4220 | 17300 (1999) | 3 (1977) | 2930 | 29 | 172 | 349 | 382 | 1070 | 4300 | 4810 | 9180 | 13600 |
| 2026-04-16 17:45 | 11.17 | 4330 | 17300 (1999) | 3 (1977) | 2930 | 29 | 172 | 349 | 382 | 1070 | 4300 | 4810 | 9180 | 13600 |
| 2026-04-16 16:45 | 11.32 | 4450 | 17300 (1999) | 3 (1977) | 2930 | 29 | 172 | 349 | 382 | 1070 | 4300 | 4810 | 9180 | 13600 |
| 2026-04-16 15:45 | 11.51 | 4600 | 17300 (1999) | 3 (1977) | 2930 | 29 | 172 | 349 | 382 | 1070 | 4300 | 4810 | 9180 | 13600 |
| 2026-04-16 14:45 | 11.70 | 4760 | 17300 (1999) | 3 (1977) | 2930 | 29 | 172 | 349 | 382 | 1070 | 4300 | 4810 | 9180 | 13600 |
| 2026-04-16 13:45 | 11.94 | 4950 | 17300 (1999) | 3 (1977) | 2930 | 29 | 172 | 349 | 382 | 1070 | 4300 | 4810 | 9180 | 13600 |
| 2026-04-16 12:45 | 12.19 | 5160 | 17300 (1999) | 3 (1977) | 2930 | 29 | 172 | 349 | 382 | 1070 | 4300 | 4810 | 9180 | 13600 |
| 2026-04-16 11:45 | 12.44 | 5370 | 17300 (1999) | 3 (1977) | 2930 | 29 | 172 | 349 | 382 | 1070 | 4300 | 4810 | 9180 | 13600 |
| 2026-04-16 10:45 | 12.75 | 5630 | 17300 (1999) | 3 (1977) | 2930 | 29 | 172 | 349 | 382 | 1070 | 4300 | 4810 | 9180 | 13600 |
| 2026-04-16 09:45 | 13.05 | 5890 | 17300 (1999) | 3 (1977) | 2930 | 29 | 172 | 349 | 382 | 1070 | 4300 | 4810 | 9180 | 13600 |
| 2026-04-16 08:45 | 13.37 | 6170 | 17300 (1999) | 3 (1977) | 2930 | 29 | 172 | 349 | 382 | 1070 | 4300 | 4810 | 9180 | 13600 |
| 2026-04-16 07:45 | 13.71 | 6480 | 17300 (1999) | 3 (1977) | 2930 | 29 | 172 | 349 | 382 | 1070 | 4300 | 4810 | 9180 | 13600 |
| 2026-04-16 06:45 | 14.04 | 6780 | 17300 (1999) | 3 (1977) | 2930 | 29 | 172 | 349 | 382 | 1070 | 4300 | 4810 | 9180 | 13600 |
| 2026-04-16 05:45 | 14.35 | 7070 | 17300 (1999) | 3 (1977) | 2930 | 29 | 172 | 349 | 382 | 1070 | 4300 | 4810 | 9180 | 13600 |
| 2026-04-16 04:45 | 14.68 | 7380 | 17300 (1999) | 3 (1977) | 2930 | 29 | 172 | 349 | 382 | 1070 | 4300 | 4810 | 9180 | 13600 |
| 2026-04-16 03:45 | 14.97 | 7650 | 17300 (1999) | 3 (1977) | 2930 | 29 | 172 | 349 | 382 | 1070 | 4300 | 4810 | 9180 | 13600 |
| 2026-04-16 02:45 | 15.27 | 7940 | 17300 (1999) | 3 (1977) | 2930 | 29 | 172 | 349 | 382 | 1070 | 4300 | 4810 | 9180 | 13600 |
| 2026-04-16 01:45 | 15.57 | 8240 | 17300 (1999) | 3 (1977) | 2930 | 29 | 172 | 349 | 382 | 1070 | 4300 | 4810 | 9180 | 13600 |
| 2026-04-16 00:45 | 15.85 | 8510 | 17300 (1999) | 3 (1977) | 2930 | 29 | 172 | 349 | 382 | 1070 | 4300 | 4810 | 9180 | 13600 |
| 2026-04-15 23:45 | 16.11 | 8770 | 17300 (1999) | 3 (1977) | 2930 | 29 | 172 | 349 | 382 | 1070 | 4300 | 4810 | 9180 | 13600 |
| 2026-04-15 22:45 | 16.36 | 9030 | 20200 (1994) | 5 (1977) | 3370 | 26 | 183 | 335 | 413 | 1270 | 4450 | 5310 | 11200 | 14900 |
| 2026-04-15 21:45 | 16.58 | 9250 | 20200 (1994) | 5 (1977) | 3370 | 26 | 183 | 335 | 413 | 1270 | 4450 | 5310 | 11200 | 14900 |
| 2026-04-15 20:45 | 16.76 | 9440 | 20200 (1994) | 5 (1977) | 3370 | 26 | 183 | 335 | 413 | 1270 | 4450 | 5310 | 11200 | 14900 |
| 2026-04-15 19:45 | 16.88 | 9560 | 20200 (1994) | 5 (1977) | 3370 | 26 | 183 | 335 | 413 | 1270 | 4450 | 5310 | 11200 | 14900 |
| 2026-04-15 18:45 | 16.96 | 9650 | 20200 (1994) | 5 (1977) | 3370 | 26 | 183 | 335 | 413 | 1270 | 4450 | 5310 | 11200 | 14900 |
| 2026-04-15 17:45 | 17.03 | 9720 | 20200 (1994) | 5 (1977) | 3370 | 26 | 183 | 335 | 413 | 1270 | 4450 | 5310 | 11200 | 14900 |
| 2026-04-15 16:45 | 17.10 | 9790 | 20200 (1994) | 5 (1977) | 3370 | 26 | 183 | 335 | 413 | 1270 | 4450 | 5310 | 11200 | 14900 |
| 2026-04-15 15:45 | 17.11 | 9800 | 20200 (1994) | 5 (1977) | 3370 | 26 | 183 | 335 | 413 | 1270 | 4450 | 5310 | 11200 | 14900 |
| 2026-04-15 14:45 | 17.13 | 9820 | 20200 (1994) | 5 (1977) | 3370 | 26 | 183 | 335 | 413 | 1270 | 4450 | 5310 | 11200 | 14900 |
| 2026-04-15 13:45 | 17.13 | 9820 | 20200 (1994) | 5 (1977) | 3370 | 26 | 183 | 335 | 413 | 1270 | 4450 | 5310 | 11200 | 14900 |
| 2026-04-15 12:45 | 17.12 | 9810 | 20200 (1994) | 5 (1977) | 3370 | 26 | 183 | 335 | 413 | 1270 | 4450 | 5310 | 11200 | 14900 |
| 2026-04-15 11:45 | 17.13 | 9820 | 20200 (1994) | 5 (1977) | 3370 | 26 | 183 | 335 | 413 | 1270 | 4450 | 5310 | 11200 | 14900 |
| 2026-04-15 10:45 | 17.10 | 9790 | 20200 (1994) | 5 (1977) | 3370 | 26 | 183 | 335 | 413 | 1270 | 4450 | 5310 | 11200 | 14900 |
| 2026-04-15 09:45 | 17.08 | 9770 | 20200 (1994) | 5 (1977) | 3370 | 26 | 183 | 335 | 413 | 1270 | 4450 | 5310 | 11200 | 14900 |
| 2026-04-15 08:45 | 17.03 | 9720 | 20200 (1994) | 5 (1977) | 3370 | 26 | 183 | 335 | 413 | 1270 | 4450 | 5310 | 11200 | 14900 |
| 2026-04-15 07:45 | 16.93 | 9610 | 20200 (1994) | 5 (1977) | 3370 | 26 | 183 | 335 | 413 | 1270 | 4450 | 5310 | 11200 | 14900 |
| 2026-04-15 06:45 | 16.85 | 9530 | 20200 (1994) | 5 (1977) | 3370 | 26 | 183 | 335 | 413 | 1270 | 4450 | 5310 | 11200 | 14900 |
| 2026-04-15 05:45 | 16.75 | 9430 | 20200 (1994) | 5 (1977) | 3370 | 26 | 183 | 335 | 413 | 1270 | 4450 | 5310 | 11200 | 14900 |
| 2026-04-15 04:45 | 16.62 | 9290 | 20200 (1994) | 5 (1977) | 3370 | 26 | 183 | 335 | 413 | 1270 | 4450 | 5310 | 11200 | 14900 |
| 2026-04-15 03:45 | 16.49 | 9160 | 20200 (1994) | 5 (1977) | 3370 | 26 | 183 | 335 | 413 | 1270 | 4450 | 5310 | 11200 | 14900 |
| 2026-04-15 02:45 | 16.37 | 9040 | 20200 (1994) | 5 (1977) | 3370 | 26 | 183 | 335 | 413 | 1270 | 4450 | 5310 | 11200 | 14900 |
| 2026-04-15 01:45 | 16.23 | 8900 | 20200 (1994) | 5 (1977) | 3370 | 26 | 183 | 335 | 413 | 1270 | 4450 | 5310 | 11200 | 14900 |
| 2026-04-15 00:45 | 16.05 | 8710 | 20200 (1994) | 5 (1977) | 3370 | 26 | 183 | 335 | 413 | 1270 | 4450 | 5310 | 11200 | 14900 |
| 2026-04-14 23:45 | 15.87 | 8530 | 20200 (1994) | 5 (1977) | 3370 | 26 | 183 | 335 | 413 | 1270 | 4450 | 5310 | 11200 | 14900 |
| 2026-04-14 22:45 | 15.64 | 8300 | 22700 (1994) | 6 (1977) | 3210 | 26 | 178 | 358 | 456 | 1210 | 4010 | 4930 | 9890 | 16100 |
| 2026-04-14 21:45 | 15.38 | 8050 | 22700 (1994) | 6 (1977) | 3210 | 26 | 178 | 358 | 456 | 1210 | 4010 | 4930 | 9890 | 16100 |
| 2026-04-14 20:45 | 15.13 | 7810 | 22700 (1994) | 6 (1977) | 3210 | 26 | 178 | 358 | 456 | 1210 | 4010 | 4930 | 9890 | 16100 |
| 2026-04-14 19:45 | 14.84 | 7530 | 22700 (1994) | 6 (1977) | 3210 | 26 | 178 | 358 | 456 | 1210 | 4010 | 4930 | 9890 | 16100 |
| 2026-04-14 18:45 | 14.56 | 7260 | 22700 (1994) | 6 (1977) | 3210 | 26 | 178 | 358 | 456 | 1210 | 4010 | 4930 | 9890 | 16100 |
| 2026-04-14 17:45 | 14.27 | 6990 | 22700 (1994) | 6 (1977) | 3210 | 26 | 178 | 358 | 456 | 1210 | 4010 | 4930 | 9890 | 16100 |
| 2026-04-14 16:45 | 14.00 | 6740 | 22700 (1994) | 6 (1977) | 3210 | 26 | 178 | 358 | 456 | 1210 | 4010 | 4930 | 9890 | 16100 |
| 2026-04-14 15:45 | 13.77 | 6530 | 22700 (1994) | 6 (1977) | 3210 | 26 | 178 | 358 | 456 | 1210 | 4010 | 4930 | 9890 | 16100 |
| 2026-04-14 14:45 | 13.56 | 6340 | 22700 (1994) | 6 (1977) | 3210 | 26 | 178 | 358 | 456 | 1210 | 4010 | 4930 | 9890 | 16100 |
| 2026-04-14 13:45 | 13.40 | 6200 | 22700 (1994) | 6 (1977) | 3210 | 26 | 178 | 358 | 456 | 1210 | 4010 | 4930 | 9890 | 16100 |
| 2026-04-14 12:45 | 13.33 | 6140 | 22700 (1994) | 6 (1977) | 3210 | 26 | 178 | 358 | 456 | 1210 | 4010 | 4930 | 9890 | 16100 |
| 2026-04-14 11:45 | 13.25 | 6070 | 22700 (1994) | 6 (1977) | 3210 | 26 | 178 | 358 | 456 | 1210 | 4010 | 4930 | 9890 | 16100 |
| 2026-04-14 09:45 | 13.16 | 5990 | 22700 (1994) | 6 (1977) | 3210 | 26 | 178 | 358 | 456 | 1210 | 4010 | 4930 | 9890 | 16100 |
| 2026-04-14 08:45 | 13.14 | 5970 | 22700 (1994) | 6 (1977) | 3210 | 26 | 178 | 358 | 456 | 1210 | 4010 | 4930 | 9890 | 16100 |
| 2026-04-14 07:45 | 13.09 | 5930 | 22700 (1994) | 6 (1977) | 3210 | 26 | 178 | 358 | 456 | 1210 | 4010 | 4930 | 9890 | 16100 |
| 2026-04-14 06:45 | 13.07 | 5910 | 22700 (1994) | 6 (1977) | 3210 | 26 | 178 | 358 | 456 | 1210 | 4010 | 4930 | 9890 | 16100 |
| 2026-04-14 05:45 | 13.02 | 5860 | 22700 (1994) | 6 (1977) | 3210 | 26 | 178 | 358 | 456 | 1210 | 4010 | 4930 | 9890 | 16100 |
| 2026-04-14 04:45 | 12.96 | 5810 | 22700 (1994) | 6 (1977) | 3210 | 26 | 178 | 358 | 456 | 1210 | 4010 | 4930 | 9890 | 16100 |
| 2026-04-14 03:45 | 12.96 | 5810 | 22700 (1994) | 6 (1977) | 3210 | 26 | 178 | 358 | 456 | 1210 | 4010 | 4930 | 9890 | 16100 |
| 2026-04-14 02:45 | 12.98 | 5830 | 22700 (1994) | 6 (1977) | 3210 | 26 | 178 | 358 | 456 | 1210 | 4010 | 4930 | 9890 | 16100 |
| 2026-04-14 01:45 | 12.99 | 5840 | 22700 (1994) | 6 (1977) | 3210 | 26 | 178 | 358 | 456 | 1210 | 4010 | 4930 | 9890 | 16100 |
| 2026-04-14 00:45 | 12.99 | 5840 | 22700 (1994) | 6 (1977) | 3210 | 26 | 178 | 358 | 456 | 1210 | 4010 | 4930 | 9890 | 16100 |
| 2026-04-13 22:45 | 12.89 | 5750 | 26700 (1994) | 7 (1977) | 2820 | 27 | 184 | 315 | 472 | 1280 | 2640 | 4080 | 6330 | 16300 |
| 2026-04-13 21:45 | 12.88 | 5740 | 26700 (1994) | 7 (1977) | 2820 | 27 | 184 | 315 | 472 | 1280 | 2640 | 4080 | 6330 | 16300 |
| 2026-04-13 20:45 | 12.88 | 5740 | 26700 (1994) | 7 (1977) | 2820 | 27 | 184 | 315 | 472 | 1280 | 2640 | 4080 | 6330 | 16300 |
| 2026-04-13 19:45 | 12.92 | 5780 | 26700 (1994) | 7 (1977) | 2820 | 27 | 184 | 315 | 472 | 1280 | 2640 | 4080 | 6330 | 16300 |
| 2026-04-13 18:45 | 12.95 | 5800 | 26700 (1994) | 7 (1977) | 2820 | 27 | 184 | 315 | 472 | 1280 | 2640 | 4080 | 6330 | 16300 |
| 2026-04-13 17:45 | 12.96 | 5810 | 26700 (1994) | 7 (1977) | 2820 | 27 | 184 | 315 | 472 | 1280 | 2640 | 4080 | 6330 | 16300 |
| 2026-04-13 16:45 | 12.95 | 5800 | 26700 (1994) | 7 (1977) | 2820 | 27 | 184 | 315 | 472 | 1280 | 2640 | 4080 | 6330 | 16300 |
| 2026-04-13 15:45 | 12.96 | 5810 | 26700 (1994) | 7 (1977) | 2820 | 27 | 184 | 315 | 472 | 1280 | 2640 | 4080 | 6330 | 16300 |
| 2026-04-13 14:45 | 12.89 | 5750 | 26700 (1994) | 7 (1977) | 2820 | 27 | 184 | 315 | 472 | 1280 | 2640 | 4080 | 6330 | 16300 |
| 2026-04-13 13:45 | 12.78 | 5660 | 26700 (1994) | 7 (1977) | 2820 | 27 | 184 | 315 | 472 | 1280 | 2640 | 4080 | 6330 | 16300 |
| 2026-04-13 12:45 | 12.65 | 5550 | 26700 (1994) | 7 (1977) | 2820 | 27 | 184 | 315 | 472 | 1280 | 2640 | 4080 | 6330 | 16300 |
| 2026-04-13 11:45 | 12.48 | 5400 | 26700 (1994) | 7 (1977) | 2820 | 27 | 184 | 315 | 472 | 1280 | 2640 | 4080 | 6330 | 16300 |
| 2026-04-13 11:30 | 12.42 | 5350 | 26700 (1994) | 7 (1977) | 2820 | 27 | 184 | 315 | 472 | 1280 | 2640 | 4080 | 6330 | 16300 |
| 2026-04-13 10:45 | 12.27 | 5220 | 26700 (1994) | 7 (1977) | 2820 | 27 | 184 | 315 | 472 | 1280 | 2640 | 4080 | 6330 | 16300 |
| 2026-04-13 09:45 | 12.02 | 5020 | 26700 (1994) | 7 (1977) | 2820 | 27 | 184 | 315 | 472 | 1280 | 2640 | 4080 | 6330 | 16300 |
| 2026-04-13 08:45 | 11.76 | 4800 | 26700 (1994) | 7 (1977) | 2820 | 27 | 184 | 315 | 472 | 1280 | 2640 | 4080 | 6330 | 16300 |
| 2026-04-13 07:45 | 11.49 | 4590 | 26700 (1994) | 7 (1977) | 2820 | 27 | 184 | 315 | 472 | 1280 | 2640 | 4080 | 6330 | 16300 |
| 2026-04-13 06:45 | 11.23 | 4380 | 26700 (1994) | 7 (1977) | 2820 | 27 | 184 | 315 | 472 | 1280 | 2640 | 4080 | 6330 | 16300 |
| 2026-04-13 05:45 | 11.07 | 4260 | 26700 (1994) | 7 (1977) | 2820 | 27 | 184 | 315 | 472 | 1280 | 2640 | 4080 | 6330 | 16300 |
| 2026-04-13 04:45 | 10.93 | 4150 | 26700 (1994) | 7 (1977) | 2820 | 27 | 184 | 315 | 472 | 1280 | 2640 | 4080 | 6330 | 16300 |
| 2026-04-13 03:45 | 10.91 | 4130 | 26700 (1994) | 7 (1977) | 2820 | 27 | 184 | 315 | 472 | 1280 | 2640 | 4080 | 6330 | 16300 |
| 2026-04-13 02:45 | 10.90 | 4120 | 26700 (1994) | 7 (1977) | 2820 | 27 | 184 | 315 | 472 | 1280 | 2640 | 4080 | 6330 | 16300 |
| 2026-04-13 01:45 | 10.89 | 4120 | 26700 (1994) | 7 (1977) | 2820 | 27 | 184 | 315 | 472 | 1280 | 2640 | 4080 | 6330 | 16300 |
| 2026-04-13 00:45 | 10.92 | 4140 | 26700 (1994) | 7 (1977) | 2820 | 27 | 184 | 315 | 472 | 1280 | 2640 | 4080 | 6330 | 16300 |
| 2026-04-12 23:45 | 10.95 | 4160 | 26700 (1994) | 7 (1977) | 2820 | 27 | 184 | 315 | 472 | 1280 | 2640 | 4080 | 6330 | 16300 |
| 2026-04-12 22:45 | 10.97 | 4180 | 25300 (1994) | 14 (1977) | 2910 | 28 | 158 | 278 | 403 | 1420 | 3290 | 3930 | 8250 | 15600 |
| 2026-04-12 21:45 | 10.98 | 4190 | 25300 (1994) | 14 (1977) | 2910 | 28 | 158 | 278 | 403 | 1420 | 3290 | 3930 | 8250 | 15600 |
| 2026-04-12 20:45 | 11.02 | 4220 | 25300 (1994) | 14 (1977) | 2910 | 28 | 158 | 278 | 403 | 1420 | 3290 | 3930 | 8250 | 15600 |
| 2026-04-12 19:45 | 11.02 | 4220 | 25300 (1994) | 14 (1977) | 2910 | 28 | 158 | 278 | 403 | 1420 | 3290 | 3930 | 8250 | 15600 |
| 2026-04-12 18:45 | 11.04 | 4230 | 25300 (1994) | 14 (1977) | 2910 | 28 | 158 | 278 | 403 | 1420 | 3290 | 3930 | 8250 | 15600 |
| 2026-04-12 17:45 | 11.05 | 4240 | 25300 (1994) | 14 (1977) | 2910 | 28 | 158 | 278 | 403 | 1420 | 3290 | 3930 | 8250 | 15600 |
| 2026-04-12 16:45 | 11.04 | 4230 | 25300 (1994) | 14 (1977) | 2910 | 28 | 158 | 278 | 403 | 1420 | 3290 | 3930 | 8250 | 15600 |
| 2026-04-12 15:45 | 11.05 | 4240 | 25300 (1994) | 14 (1977) | 2910 | 28 | 158 | 278 | 403 | 1420 | 3290 | 3930 | 8250 | 15600 |
| 2026-04-12 14:45 | 11.05 | 4240 | 25300 (1994) | 14 (1977) | 2910 | 28 | 158 | 278 | 403 | 1420 | 3290 | 3930 | 8250 | 15600 |
| 2026-04-12 13:45 | 11.05 | 4240 | 25300 (1994) | 14 (1977) | 2910 | 28 | 158 | 278 | 403 | 1420 | 3290 | 3930 | 8250 | 15600 |
| 2026-04-12 12:45 | 11.00 | 4200 | 25300 (1994) | 14 (1977) | 2910 | 28 | 158 | 278 | 403 | 1420 | 3290 | 3930 | 8250 | 15600 |
| 2026-04-12 11:45 | 10.96 | 4170 | 25300 (1994) | 14 (1977) | 2910 | 28 | 158 | 278 | 403 | 1420 | 3290 | 3930 | 8250 | 15600 |
| 2026-04-12 11:30 | 10.94 | 4160 | 25300 (1994) | 14 (1977) | 2910 | 28 | 158 | 278 | 403 | 1420 | 3290 | 3930 | 8250 | 15600 |
| 2026-04-12 10:45 | 10.91 | 4130 | 25300 (1994) | 14 (1977) | 2910 | 28 | 158 | 278 | 403 | 1420 | 3290 | 3930 | 8250 | 15600 |
| 2026-04-12 09:45 | 10.84 | 4080 | 25300 (1994) | 14 (1977) | 2910 | 28 | 158 | 278 | 403 | 1420 | 3290 | 3930 | 8250 | 15600 |
| 2026-04-12 08:45 | 10.77 | 4030 | 25300 (1994) | 14 (1977) | 2910 | 28 | 158 | 278 | 403 | 1420 | 3290 | 3930 | 8250 | 15600 |
| 2026-04-12 07:45 | 10.68 | 3960 | 25300 (1994) | 14 (1977) | 2910 | 28 | 158 | 278 | 403 | 1420 | 3290 | 3930 | 8250 | 15600 |
| 2026-04-12 06:45 | 10.59 | 3890 | 25300 (1994) | 14 (1977) | 2910 | 28 | 158 | 278 | 403 | 1420 | 3290 | 3930 | 8250 | 15600 |
| 2026-04-12 05:45 | 10.48 | 3810 | 25300 (1994) | 14 (1977) | 2910 | 28 | 158 | 278 | 403 | 1420 | 3290 | 3930 | 8250 | 15600 |
| 2026-04-12 04:45 | 10.36 | 3720 | 25300 (1994) | 14 (1977) | 2910 | 28 | 158 | 278 | 403 | 1420 | 3290 | 3930 | 8250 | 15600 |
| 2026-04-12 03:45 | 10.24 | 3630 | 25300 (1994) | 14 (1977) | 2910 | 28 | 158 | 278 | 403 | 1420 | 3290 | 3930 | 8250 | 15600 |
| 2026-04-12 02:45 | 10.17 | 3580 | 25300 (1994) | 14 (1977) | 2910 | 28 | 158 | 278 | 403 | 1420 | 3290 | 3930 | 8250 | 15600 |
| 2026-04-12 01:45 | 10.09 | 3520 | 25300 (1994) | 14 (1977) | 2910 | 28 | 158 | 278 | 403 | 1420 | 3290 | 3930 | 8250 | 15600 |
| 2026-04-12 00:45 | 10.04 | 3480 | 25300 (1994) | 14 (1977) | 2910 | 28 | 158 | 278 | 403 | 1420 | 3290 | 3930 | 8250 | 15600 |
| 2026-04-11 23:45 | 9.98 | 3440 | 25300 (1994) | 14 (1977) | 2910 | 28 | 158 | 278 | 403 | 1420 | 3290 | 3930 | 8250 | 15600 |
| 2026-04-11 22:45 | 1 | 3450 | 16700 (1994) | 6 (1977) | 2820 | 30 | 162 | 261 | 329 | 1310 | 2820 | 4300 | 7670 | 16000 |
| 2026-04-11 21:45 | 10.05 | 3490 | 16700 (1994) | 6 (1977) | 2820 | 30 | 162 | 261 | 329 | 1310 | 2820 | 4300 | 7670 | 16000 |
| 2026-04-11 20:45 | 10.07 | 3510 | 16700 (1994) | 6 (1977) | 2820 | 30 | 162 | 261 | 329 | 1310 | 2820 | 4300 | 7670 | 16000 |
| 2026-04-11 19:45 | 10.10 | 3530 | 16700 (1994) | 6 (1977) | 2820 | 30 | 162 | 261 | 329 | 1310 | 2820 | 4300 | 7670 | 16000 |
| 2026-04-11 18:45 | 10.15 | 3560 | 16700 (1994) | 6 (1977) | 2820 | 30 | 162 | 261 | 329 | 1310 | 2820 | 4300 | 7670 | 16000 |
| 2026-04-11 17:45 | 10.22 | 3610 | 16700 (1994) | 6 (1977) | 2820 | 30 | 162 | 261 | 329 | 1310 | 2820 | 4300 | 7670 | 16000 |
| 2026-04-11 16:45 | 10.26 | 3640 | 16700 (1994) | 6 (1977) | 2820 | 30 | 162 | 261 | 329 | 1310 | 2820 | 4300 | 7670 | 16000 |
| 2026-04-11 15:45 | 10.31 | 3680 | 16700 (1994) | 6 (1977) | 2820 | 30 | 162 | 261 | 329 | 1310 | 2820 | 4300 | 7670 | 16000 |
| 2026-04-11 14:45 | 10.34 | 3700 | 16700 (1994) | 6 (1977) | 2820 | 30 | 162 | 261 | 329 | 1310 | 2820 | 4300 | 7670 | 16000 |
| 2026-04-11 13:45 | 10.30 | 3670 | 16700 (1994) | 6 (1977) | 2820 | 30 | 162 | 261 | 329 | 1310 | 2820 | 4300 | 7670 | 16000 |
| 2026-04-11 12:45 | 10.27 | 3650 | 16700 (1994) | 6 (1977) | 2820 | 30 | 162 | 261 | 329 | 1310 | 2820 | 4300 | 7670 | 16000 |
| 2026-04-11 11:45 | 10.18 | 3590 | 16700 (1994) | 6 (1977) | 2820 | 30 | 162 | 261 | 329 | 1310 | 2820 | 4300 | 7670 | 16000 |
| 2026-04-11 11:30 | 10.17 | 3580 | 16700 (1994) | 6 (1977) | 2820 | 30 | 162 | 261 | 329 | 1310 | 2820 | 4300 | 7670 | 16000 |
| 2026-04-11 10:45 | 10.05 | 3490 | 16700 (1994) | 6 (1977) | 2820 | 30 | 162 | 261 | 329 | 1310 | 2820 | 4300 | 7670 | 16000 |
| 2026-04-11 09:45 | 9.86 | 3350 | 16700 (1994) | 6 (1977) | 2820 | 30 | 162 | 261 | 329 | 1310 | 2820 | 4300 | 7670 | 16000 |
| 2026-04-11 08:45 | 9.57 | 3150 | 16700 (1994) | 6 (1977) | 2820 | 30 | 162 | 261 | 329 | 1310 | 2820 | 4300 | 7670 | 16000 |
| 2026-04-11 07:45 | 9.21 | 2900 | 16700 (1994) | 6 (1977) | 2820 | 30 | 162 | 261 | 329 | 1310 | 2820 | 4300 | 7670 | 16000 |
| 2026-04-11 06:45 | 8.76 | 2600 | 16700 (1994) | 6 (1977) | 2820 | 30 | 162 | 261 | 329 | 1310 | 2820 | 4300 | 7670 | 16000 |
| 2026-04-11 05:45 | 8.25 | 2280 | 16700 (1994) | 6 (1977) | 2820 | 30 | 162 | 261 | 329 | 1310 | 2820 | 4300 | 7670 | 16000 |
| 2026-04-11 04:45 | 7.64 | 1910 | 16700 (1994) | 6 (1977) | 2820 | 30 | 162 | 261 | 329 | 1310 | 2820 | 4300 | 7670 | 16000 |
| 2026-04-11 03:45 | 7.12 | 1620 | 16700 (1994) | 6 (1977) | 2820 | 30 | 162 | 261 | 329 | 1310 | 2820 | 4300 | 7670 | 16000 |
| 2026-04-11 02:45 | 6.69 | 1340 | 16700 (1994) | 6 (1977) | 2820 | 30 | 162 | 261 | 329 | 1310 | 2820 | 4300 | 7670 | 16000 |
| 2026-04-11 01:45 | 6.36 | 1150 | 16700 (1994) | 6 (1977) | 2820 | 30 | 162 | 261 | 329 | 1310 | 2820 | 4300 | 7670 | 16000 |
| 2026-04-11 00:45 | 6.08 | 995 | 16700 (1994) | 6 (1977) | 2820 | 30 | 162 | 261 | 329 | 1310 | 2820 | 4300 | 7670 | 16000 |
| 2026-04-10 23:45 | 5.86 | 881 | 16700 (1994) | 6 (1977) | 2820 | 30 | 162 | 261 | 329 | 1310 | 2820 | 4300 | 7670 | 16000 |
| 2026-04-10 22:45 | 5.71 | 807 | 23000 (1983) | 2 (1977) | 2590 | 38 | 132 | 289 | 384 | 1170 | 2590 | 3110 | 6630 | 13400 |
| 2026-04-10 21:45 | 5.60 | 753 | 23000 (1983) | 2 (1977) | 2590 | 38 | 132 | 289 | 384 | 1170 | 2590 | 3110 | 6630 | 13400 |
| 2026-04-10 20:45 | 5.55 | 728 | 23000 (1983) | 2 (1977) | 2590 | 38 | 132 | 289 | 384 | 1170 | 2590 | 3110 | 6630 | 13400 |
| 2026-04-10 19:45 | 5.53 | 718 | 23000 (1983) | 2 (1977) | 2590 | 38 | 132 | 289 | 384 | 1170 | 2590 | 3110 | 6630 | 13400 |
| 2026-04-10 18:45 | 5.52 | 713 | 23000 (1983) | 2 (1977) | 2590 | 38 | 132 | 289 | 384 | 1170 | 2590 | 3110 | 6630 | 13400 |
| 2026-04-10 17:45 | 5.53 | 718 | 23000 (1983) | 2 (1977) | 2590 | 38 | 132 | 289 | 384 | 1170 | 2590 | 3110 | 6630 | 13400 |
| 2026-04-10 16:45 | 5.51 | 708 | 23000 (1983) | 2 (1977) | 2590 | 38 | 132 | 289 | 384 | 1170 | 2590 | 3110 | 6630 | 13400 |
| 2026-04-10 15:45 | 5.50 | 703 | 23000 (1983) | 2 (1977) | 2590 | 38 | 132 | 289 | 384 | 1170 | 2590 | 3110 | 6630 | 13400 |
| 2026-04-10 14:45 | 5.49 | 698 | 23000 (1983) | 2 (1977) | 2590 | 38 | 132 | 289 | 384 | 1170 | 2590 | 3110 | 6630 | 13400 |
| 2026-04-10 13:45 | 5.49 | 698 | 23000 (1983) | 2 (1977) | 2590 | 38 | 132 | 289 | 384 | 1170 | 2590 | 3110 | 6630 | 13400 |
| 2026-04-10 12:45 | 5.43 | 670 | 23000 (1983) | 2 (1977) | 2590 | 38 | 132 | 289 | 384 | 1170 | 2590 | 3110 | 6630 | 13400 |
| 2026-04-10 11:45 | 5.43 | 670 | 23000 (1983) | 2 (1977) | 2590 | 38 | 132 | 289 | 384 | 1170 | 2590 | 3110 | 6630 | 13400 |
| 2026-04-10 11:30 | 5.41 | 660 | 23000 (1983) | 2 (1977) | 2590 | 38 | 132 | 289 | 384 | 1170 | 2590 | 3110 | 6630 | 13400 |
| 2026-04-10 10:45 | 5.40 | 655 | 23000 (1983) | 2 (1977) | 2590 | 38 | 132 | 289 | 384 | 1170 | 2590 | 3110 | 6630 | 13400 |
| 2026-04-10 09:45 | 5.36 | 637 | 23000 (1983) | 2 (1977) | 2590 | 38 | 132 | 289 | 384 | 1170 | 2590 | 3110 | 6630 | 13400 |
| 2026-04-10 08:45 | 5.39 | 651 | 23000 (1983) | 2 (1977) | 2590 | 38 | 132 | 289 | 384 | 1170 | 2590 | 3110 | 6630 | 13400 |
| 2026-04-10 07:45 | 5.37 | 641 | 23000 (1983) | 2 (1977) | 2590 | 38 | 132 | 289 | 384 | 1170 | 2590 | 3110 | 6630 | 13400 |
| 2026-04-10 06:45 | 5.35 | 632 | 23000 (1983) | 2 (1977) | 2590 | 38 | 132 | 289 | 384 | 1170 | 2590 | 3110 | 6630 | 13400 |
| 2026-04-10 05:45 | 5.35 | 632 | 23000 (1983) | 2 (1977) | 2590 | 38 | 132 | 289 | 384 | 1170 | 2590 | 3110 | 6630 | 13400 |
| 2026-04-10 04:45 | 5.35 | 632 | 23000 (1983) | 2 (1977) | 2590 | 38 | 132 | 289 | 384 | 1170 | 2590 | 3110 | 6630 | 13400 |
| 2026-04-10 03:45 | 5.34 | 628 | 23000 (1983) | 2 (1977) | 2590 | 38 | 132 | 289 | 384 | 1170 | 2590 | 3110 | 6630 | 13400 |
| 2026-04-10 02:45 | 5.34 | 628 | 23000 (1983) | 2 (1977) | 2590 | 38 | 132 | 289 | 384 | 1170 | 2590 | 3110 | 6630 | 13400 |
| 2026-04-10 01:45 | 5.34 | 628 | 23000 (1983) | 2 (1977) | 2590 | 38 | 132 | 289 | 384 | 1170 | 2590 | 3110 | 6630 | 13400 |
| 2026-04-10 00:45 | 5.34 | 628 | 23000 (1983) | 2 (1977) | 2590 | 38 | 132 | 289 | 384 | 1170 | 2590 | 3110 | 6630 | 13400 |
| 2026-04-09 23:45 | 5.35 | 632 | 23000 (1983) | 2 (1977) | 2590 | 38 | 132 | 289 | 384 | 1170 | 2590 | 3110 | 6630 | 13400 |
A total of 759 rows are displayed for years 1959 through 2025.